Time,TemperatureF,DewpointF,PressureIn,WindDirection,WindDirectionDegrees,WindSpeedMPH,WindSpeedGustMPH,Humidity,HourlyPrecipIn,Conditions,Clouds,dailyrainin,SoftwareType,DateUTC
2013-11-22 00:00:00,56.7,52.6,30.28,SSW,195,0.0,0.0,86,0.00,,---,0.00,VWS V14.01,2013-11-22 05:00:00,
2013-11-22 00:01:00,56.7,52.9,30.28,SSW,195,0.0,0.0,87,0.00,,---,0.00,VWS V14.01,2013-11-22 05:01:00,
2013-11-22 00:02:00,56.7,52.9,30.28,SSW,195,0.0,0.0,87,0.00,,---,0.00,VWS V14.01,2013-11-22 05:02:00,
2013-11-22 00:06:00,56.7,52.6,30.28,WSW,248,0.0,0.0,86,0.00,,---,0.00,VWS V14.01,2013-11-22 05:06:00,
2013-11-22 00:07:00,56.6,52.5,30.28,WSW,248,0.0,1.0,86,0.00,,---,0.00,VWS V14.01,2013-11-22 05:07:00,
2013-11-22 00:11:00,56.6,52.5,30.28,WSW,254,0.0,1.0,86,0.00,,---,0.00,VWS V14.01,2013-11-22 05:11:00,
2013-11-22 00:12:00,56.6,52.5,30.28,SSW,200,1.0,2.0,86,0.00,,---,0.00,VWS V14.01,2013-11-22 05:12:00,
2013-11-22 00:16:00,56.6,52.8,30.28,WNW,284,0.0,1.0,87,0.00,,---,0.00,VWS V14.01,2013-11-22 05:16:00,
2013-11-22 00:17:00,56.6,52.8,30.28,WNW,284,0.0,1.0,87,0.00,,---,0.00,VWS V14.01,2013-11-22 05:17:00,
2013-11-22 00:18:00,56.6,52.8,30.28,SE,144,0.0,1.0,87,0.00,,---,0.00,VWS V14.01,2013-11-22 05:18:00,
2013-11-22 00:21:00,56.6,52.8,30.28,WSW,250,0.0,2.0,87,0.00,,---,0.00,VWS V14.01,2013-11-22 05:21:00,
2013-11-22 00:22:00,56.6,52.8,30.28,WSW,250,0.0,2.0,87,0.00,,---,0.00,VWS V14.01,2013-11-22 05:22:00,
2013-11-22 00:23:00,56.6,52.8,30.28,WSW,254,0.0,2.0,87,0.00,,---,0.00,VWS V14.01,2013-11-22 05:23:00,
2013-11-22 00:26:00,56.5,52.7,30.28,WSW,254,0.0,1.0,87,0.00,,---,0.00,VWS V14.01,2013-11-22 05:26:00,
2013-11-22 00:27:00,56.5,52.7,30.28,SW,234,1.0,2.0,87,0.00,,---,0.00,VWS V14.01,2013-11-22 05:27:00,
2013-11-22 00:28:00,56.5,52.7,30.28,West,259,1.0,2.0,87,0.00,,---,0.00,VWS V14.01,2013-11-22 05:28:00,
2013-11-22 00:29:00,56.5,52.7,30.28,WSW,258,1.0,4.0,87,0.00,,---,0.00,VWS V14.01,2013-11-22 05:29:00,
2013-11-22 00:31:00,56.5,52.7,30.28,West,268,0.0,1.0,87,0.00,,---,0.00,VWS V14.01,2013-11-22 05:31:00,
2013-11-22 00:32:00,56.5,52.7,30.28,West,268,0.0,1.0,87,0.00,,---,0.00,VWS V14.01,2013-11-22 05:32:00,
2013-11-22 00:33:00,56.5,52.7,30.28,West,268,0.0,1.0,87,0.00,,---,0.00,VWS V14.01,2013-11-22 05:33:00,
2013-11-22 00:34:00,56.5,52.7,30.28,West,268,0.0,1.0,87,0.00,,---,0.00,VWS V14.01,2013-11-22 05:34:00,
2013-11-22 00:36:00,56.5,52.7,30.28,West,277,0.0,3.0,87,0.00,,---,0.00,VWS V14.01,2013-11-22 05:36:00,
2013-11-22 00:37:00,56.5,52.7,30.28,West,277,0.0,3.0,87,0.00,,---,0.00,VWS V14.01,2013-11-22 05:37:00,
2013-11-22 00:38:00,56.5,52.7,30.28,WNW,289,0.0,3.0,87,0.00,,---,0.00,VWS V14.01,2013-11-22 05:38:00,
2013-11-22 00:39:00,56.5,52.7,30.28,WNW,300,0.0,3.0,87,0.00,,---,0.00,VWS V14.01,2013-11-22 05:39:00,
2013-11-22 00:41:00,56.5,52.7,30.28,East,79,0.0,3.0,87,0.00,,---,0.00,VWS V14.01,2013-11-22 05:41:00,
2013-11-22 00:42:00,56.4,52.6,30.28,East,79,0.0,3.0,87,0.00,,---,0.00,VWS V14.01,2013-11-22 05:42:00,
2013-11-22 00:43:00,56.4,52.6,30.28,East,79,0.0,3.0,87,0.00,,---,0.00,VWS V14.01,2013-11-22 05:43:00,
2013-11-22 00:44:00,56.4,52.6,30.28,WNW,295,1.0,4.0,87,0.00,,---,0.00,VWS V14.01,2013-11-22 05:44:00,
2013-11-22 00:47:00,56.4,52.6,30.28,SE,138,0.0,2.0,87,0.00,,---,0.00,VWS V14.01,2013-11-22 05:47:00,
2013-11-22 00:48:00,56.4,52.6,30.28,SE,138,0.0,2.0,87,0.00,,---,0.00,VWS V14.01,2013-11-22 05:48:00,
2013-11-22 00:49:00,56.4,52.6,30.28,SE,138,0.0,2.0,87,0.00,,---,0.00,VWS V14.01,2013-11-22 05:49:00,
2013-11-22 00:52:00,56.4,52.6,30.28,ESE,123,2.0,4.0,87,0.00,,---,0.00,VWS V14.01,2013-11-22 05:52:00,
2013-11-22 00:53:00,56.4,52.6,30.28,SW,223,1.0,4.0,87,0.00,,---,0.00,VWS V14.01,2013-11-22 05:53:00,
2013-11-22 00:54:00,56.4,52.6,30.28,SW,223,0.0,4.0,87,0.00,,---,0.00,VWS V14.01,2013-11-22 05:54:00,
2013-11-22 00:57:00,56.4,52.6,30.28,SW,223,0.0,0.0,87,0.00,,---,0.00,VWS V14.01,2013-11-22 05:57:00,
2013-11-22 00:58:00,56.4,52.6,30.28,SW,223,0.0,0.0,87,0.00,,---,0.00,VWS V14.01,2013-11-22 05:58:00,
2013-11-22 00:59:00,56.4,52.6,30.28,SW,223,0.0,1.0,87,0.00,,---,0.00,VWS V14.01,2013-11-22 05:59:00,
2013-11-22 01:00:00,56.4,52.6,30.28,SW,223,0.0,0.0,87,0.00,,---,0.00,VWS V14.01,2013-11-22 06:00:00,
2013-11-22 01:02:00,56.4,52.6,30.28,West,268,0.0,4.0,87,0.00,,---,0.00,VWS V14.01,2013-11-22 06:02:00,
2013-11-22 01:03:00,56.4,52.6,30.28,SE,141,0.0,4.0,87,0.00,,---,0.00,VWS V14.01,2013-11-22 06:03:00,
2013-11-22 01:05:00,56.3,52.5,30.28,SSW,199,1.0,1.0,87,0.00,,---,0.00,VWS V14.01,2013-11-22 06:05:00,
2013-11-22 01:07:00,56.3,52.5,30.28,WSW,258,0.0,2.0,87,0.00,,---,0.00,VWS V14.01,2013-11-22 06:07:00,
2013-11-22 01:08:00,56.3,52.5,30.28,WSW,258,0.0,2.0,87,0.00,,---,0.00,VWS V14.01,2013-11-22 06:08:00,
2013-11-22 01:09:00,56.3,52.5,30.28,WSW,258,0.0,2.0,87,0.00,,---,0.00,VWS V14.01,2013-11-22 06:09:00,
2013-11-22 01:10:00,56.3,52.5,30.28,WSW,258,0.0,0.0,87,0.00,,---,0.00,VWS V14.01,2013-11-22 06:10:00,
2013-11-22 01:12:00,56.3,52.5,30.28,WSW,256,0.0,0.0,87,0.00,,---,0.00,VWS V14.01,2013-11-22 06:12:00,
2013-11-22 01:13:00,56.3,52.5,30.28,WSW,256,0.0,0.0,87,0.00,,---,0.00,VWS V14.01,2013-11-22 06:13:00,
2013-11-22 01:14:00,56.3,52.5,30.28,WSW,256,0.0,0.0,87,0.00,,---,0.00,VWS V14.01,2013-11-22 06:14:00,
2013-11-22 01:15:00,56.3,52.5,30.28,WSW,256,0.0,0.0,87,0.00,,---,0.00,VWS V14.01,2013-11-22 06:15:00,
2013-11-22 01:16:00,56.3,52.5,30.28,WSW,256,0.0,1.0,87,0.00,,---,0.00,VWS V14.01,2013-11-22 06:16:00,
2013-11-22 01:17:00,56.3,52.5,30.28,WSW,256,0.0,1.0,87,0.00,,---,0.00,VWS V14.01,2013-11-22 06:17:00,
2013-11-22 01:19:00,56.3,52.5,30.28,WSW,256,0.0,1.0,87,0.00,,---,0.00,VWS V14.01,2013-11-22 06:19:00,
2013-11-22 01:21:00,56.3,52.5,30.27,West,260,1.0,2.0,87,0.00,,---,0.00,VWS V14.01,2013-11-22 06:21:00,
2013-11-22 01:22:00,56.3,52.5,30.27,West,260,0.0,2.0,87,0.00,,---,0.00,VWS V14.01,2013-11-22 06:22:00,
2013-11-22 01:23:00,56.3,52.5,30.27,West,260,0.0,2.0,87,0.00,,---,0.00,VWS V14.01,2013-11-22 06:23:00,
2013-11-22 01:24:00,56.3,52.5,30.27,West,259,0.0,2.0,87,0.00,,---,0.00,VWS V14.01,2013-11-22 06:24:00,
2013-11-22 01:25:00,56.2,52.4,30.27,SE,131,0.0,0.0,87,0.00,,---,0.00,VWS V14.01,2013-11-22 06:25:00,
2013-11-22 01:26:00,56.2,52.4,30.27,SE,131,0.0,0.0,87,0.00,,---,0.00,VWS V14.01,2013-11-22 06:26:00,
2013-11-22 01:27:00,56.2,52.4,30.27,SE,132,0.0,1.0,87,0.00,,---,0.00,VWS V14.01,2013-11-22 06:27:00,
2013-11-22 01:28:00,56.2,52.4,30.27,SE,132,0.0,1.0,87,0.00,,---,0.00,VWS V14.01,2013-11-22 06:28:00,
2013-11-22 01:29:00,56.2,52.4,30.27,SE,131,1.0,1.0,87,0.00,,---,0.00,VWS V14.01,2013-11-22 06:29:00,
2013-11-22 01:31:00,56.2,52.7,30.27,WNW,300,0.0,2.0,88,0.00,,---,0.00,VWS V14.01,2013-11-22 06:31:00,
2013-11-22 01:32:00,56.2,52.7,30.27,WNW,301,0.0,2.0,88,0.00,,---,0.00,VWS V14.01,2013-11-22 06:32:00,
2013-11-22 01:34:00,56.2,52.7,30.27,SSW,192,0.0,2.0,88,0.00,,---,0.00,VWS V14.01,2013-11-22 06:34:00,
2013-11-22 01:36:00,56.2,52.7,30.27,WSW,250,1.0,5.0,88,0.00,,---,0.00,VWS V14.01,2013-11-22 06:36:00,
2013-11-22 01:37:00,56.2,52.7,30.27,SE,129,0.0,5.0,88,0.00,,---,0.00,VWS V14.01,2013-11-22 06:37:00,
2013-11-22 01:39:00,56.2,52.7,30.27,SE,146,0.0,5.0,88,0.00,,---,0.00,VWS V14.01,2013-11-22 06:39:00,
2013-11-22 01:41:00,56.1,52.6,30.27,WNW,288,5.0,6.0,88,0.00,,---,0.00,VWS V14.01,2013-11-22 06:41:00,
2013-11-22 01:42:00,56.1,52.6,30.27,SSW,210,1.0,6.0,88,0.00,,---,0.00,VWS V14.01,2013-11-22 06:42:00,
2013-11-22 01:44:00,56.1,52.6,30.27,South,169,1.0,6.0,88,0.00,,---,0.00,VWS V14.01,2013-11-22 06:44:00,
2013-11-22 01:46:00,56.1,52.6,30.27,South,171,0.0,1.0,88,0.00,,---,0.00,VWS V14.01,2013-11-22 06:46:00,
2013-11-22 01:47:00,56.1,52.6,30.27,South,171,0.0,1.0,88,0.00,,---,0.00,VWS V14.01,2013-11-22 06:47:00,
2013-11-22 01:48:00,56.1,52.6,30.27,ESE,116,1.0,1.0,88,0.00,,---,0.00,VWS V14.01,2013-11-22 06:48:00,
2013-11-22 01:49:00,56.1,52.6,30.27,ESE,117,0.0,1.0,88,0.00,,---,0.00,VWS V14.01,2013-11-22 06:49:00,
2013-11-22 01:52:00,56.1,52.6,30.27,North,4,0.0,2.0,88,0.00,,---,0.00,VWS V14.01,2013-11-22 06:52:00,
2013-11-22 01:53:00,56.1,52.6,30.27,West,270,2.0,3.0,88,0.00,,---,0.00,VWS V14.01,2013-11-22 06:53:00,
2013-11-22 01:54:00,56.1,52.6,30.27,West,266,0.0,3.0,88,0.00,,---,0.00,VWS V14.01,2013-11-22 06:54:00,
2013-11-22 01:57:00,56.1,52.6,30.27,South,181,1.0,3.0,88,0.00,,---,0.00,VWS V14.01,2013-11-22 06:57:00,
2013-11-22 01:58:00,56.1,52.6,30.27,East,84,0.0,3.0,88,0.00,,---,0.00,VWS V14.01,2013-11-22 06:58:00,
2013-11-22 01:59:00,56.0,52.5,30.27,WSW,254,0.0,3.0,88,0.00,,---,0.00,VWS V14.01,2013-11-22 06:59:00,
2013-11-22 02:02:00,56.0,52.5,30.27,West,265,1.0,4.0,88,0.00,,---,0.00,VWS V14.01,2013-11-22 07:02:00,
2013-11-22 02:03:00,56.0,52.5,30.27,SSE,148,2.0,4.0,88,0.00,,---,0.00,VWS V14.01,2013-11-22 07:03:00,
2013-11-22 02:04:00,56.0,52.5,30.27,South,169,1.0,4.0,88,0.00,,---,0.00,VWS V14.01,2013-11-22 07:04:00,
2013-11-22 02:05:00,56.0,52.5,30.27,WSW,244,2.0,2.0,88,0.00,,---,0.00,VWS V14.01,2013-11-22 07:05:00,
2013-11-22 02:07:00,56.0,52.5,30.27,WNW,287,0.0,3.0,88,0.00,,---,0.00,VWS V14.01,2013-11-22 07:07:00,
2013-11-22 02:08:00,56.0,52.5,30.27,ENE,61,0.0,3.0,88,0.00,,---,0.00,VWS V14.01,2013-11-22 07:08:00,
2013-11-22 02:09:00,56.0,52.5,30.27,East,88,0.0,3.0,88,0.00,,---,0.00,VWS V14.01,2013-11-22 07:09:00,
2013-11-22 02:10:00,56.0,52.5,30.28,ESE,102,0.0,1.0,88,0.00,,---,0.00,VWS V14.01,2013-11-22 07:10:00,
2013-11-22 02:13:00,56.0,52.5,30.28,SSE,160,0.0,1.0,88,0.00,,---,0.00,VWS V14.01,2013-11-22 07:13:00,
2013-11-22 02:14:00,56.0,52.5,30.28,ESE,106,0.0,1.0,88,0.00,,---,0.00,VWS V14.01,2013-11-22 07:14:00,
2013-11-22 02:15:00,55.9,52.4,30.28,West,270,0.0,2.0,88,0.00,,---,0.00,VWS V14.01,2013-11-22 07:15:00,
2013-11-22 02:18:00,55.9,52.4,30.28,West,277,2.0,6.0,88,0.00,,---,0.00,VWS V14.01,2013-11-22 07:18:00,
2013-11-22 02:19:00,55.9,52.4,30.27,WNW,290,0.0,6.0,88,0.00,,---,0.00,VWS V14.01,2013-11-22 07:19:00,
2013-11-22 02:20:00,55.9,52.4,30.27,WNW,290,0.0,0.0,88,0.00,,---,0.00,VWS V14.01,2013-11-22 07:20:00,
2013-11-22 02:21:00,55.9,52.4,30.27,WSW,246,4.0,6.0,88,0.00,,---,0.00,VWS V14.01,2013-11-22 07:21:00,
2013-11-22 02:23:00,55.9,52.4,30.27,West,259,0.0,6.0,88,0.00,,---,0.00,VWS V14.01,2013-11-22 07:23:00,
2013-11-22 02:24:00,55.9,52.4,30.27,West,259,1.0,6.0,88,0.00,,---,0.00,VWS V14.01,2013-11-22 07:24:00,
2013-11-22 02:25:00,55.9,52.4,30.27,West,259,1.0,1.0,88,0.00,,---,0.00,VWS V14.01,2013-11-22 07:25:00,
2013-11-22 02:26:00,55.9,52.4,30.27,West,259,0.0,1.0,88,0.00,,---,0.00,VWS V14.01,2013-11-22 07:26:00,
2013-11-22 02:28:00,55.9,52.4,30.27,ESE,120,0.0,1.0,88,0.00,,---,0.00,VWS V14.01,2013-11-22 07:28:00,
2013-11-22 02:29:00,55.9,52.4,30.27,ESE,121,0.0,1.0,88,0.00,,---,0.00,VWS V14.01,2013-11-22 07:29:00,
2013-11-22 02:30:00,55.9,52.4,30.27,ESE,121,0.0,0.0,88,0.00,,---,0.00,VWS V14.01,2013-11-22 07:30:00,
2013-11-22 02:31:00,55.9,52.4,30.27,ESE,121,0.0,1.0,88,0.00,,---,0.00,VWS V14.01,2013-11-22 07:31:00,
2013-11-22 02:33:00,55.9,52.4,30.27,ESE,107,0.0,2.0,88,0.00,,---,0.00,VWS V14.01,2013-11-22 07:33:00,
2013-11-22 02:34:00,55.8,52.3,30.27,West,269,1.0,4.0,88,0.00,,---,0.00,VWS V14.01,2013-11-22 07:34:00,
2013-11-22 02:35:00,55.8,52.3,30.27,SSE,163,0.0,0.0,88,0.00,,---,0.00,VWS V14.01,2013-11-22 07:35:00,
2013-11-22 02:36:00,55.8,52.3,30.27,West,280,1.0,2.0,88,0.00,,---,0.00,VWS V14.01,2013-11-22 07:36:00,
2013-11-22 02:38:00,55.8,52.3,30.27,West,280,0.0,2.0,88,0.00,,---,0.00,VWS V14.01,2013-11-22 07:38:00,
2013-11-22 02:39:00,55.8,52.3,30.27,West,268,0.0,2.0,88,0.00,,---,0.00,VWS V14.01,2013-11-22 07:39:00,
2013-11-22 02:40:00,55.8,52.3,30.27,WSW,242,0.0,0.0,88,0.00,,---,0.00,VWS V14.01,2013-11-22 07:40:00,
2013-11-22 02:41:00,55.8,52.6,30.27,WSW,242,0.0,1.0,89,0.00,,---,0.00,VWS V14.01,2013-11-22 07:41:00,
2013-11-22 02:43:00,55.8,52.6,30.27,SSW,208,0.0,1.0,89,0.00,,---,0.00,VWS V14.01,2013-11-22 07:43:00,
2013-11-22 02:44:00,55.7,52.5,30.27,SSW,208,0.0,1.0,89,0.00,,---,0.00,VWS V14.01,2013-11-22 07:44:00,
2013-11-22 02:45:00,55.7,52.5,30.27,SW,214,0.0,1.0,89,0.00,,---,0.00,VWS V14.01,2013-11-22 07:45:00,
2013-11-22 02:46:00,55.8,52.6,30.27,SW,214,0.0,1.0,89,0.00,,---,0.00,VWS V14.01,2013-11-22 07:46:00,
2013-11-22 02:48:00,55.7,52.5,30.27,West,280,0.0,1.0,89,0.00,,---,0.00,VWS V14.01,2013-11-22 07:48:00,
2013-11-22 02:49:00,55.7,52.5,30.27,West,267,0.0,1.0,89,0.00,,---,0.00,VWS V14.01,2013-11-22 07:49:00,
2013-11-22 02:50:00,55.7,52.5,30.27,South,175,0.0,2.0,89,0.00,,---,0.00,VWS V14.01,2013-11-22 07:50:00,
2013-11-22 02:51:00,55.7,52.5,30.27,SSW,208,1.0,4.0,89,0.00,,---,0.00,VWS V14.01,2013-11-22 07:51:00,
2013-11-22 02:53:00,55.7,52.5,30.27,SSE,157,1.0,4.0,89,0.00,,---,0.00,VWS V14.01,2013-11-22 07:53:00,
2013-11-22 02:54:00,55.7,52.5,30.27,SW,229,0.0,4.0,89,0.00,,---,0.00,VWS V14.01,2013-11-22 07:54:00,
2013-11-22 02:55:00,55.7,52.5,30.27,SW,231,0.0,6.0,89,0.00,,---,0.00,VWS V14.01,2013-11-22 07:55:00,
2013-11-22 02:56:00,55.7,52.5,30.27,SW,229,1.0,6.0,89,0.00,,---,0.00,VWS V14.01,2013-11-22 07:56:00,
2013-11-22 02:57:00,55.7,52.5,30.27,SW,215,0.0,6.0,89,0.00,,---,0.00,VWS V14.01,2013-11-22 07:57:00,
2013-11-22 02:58:00,55.7,52.5,30.27,SW,215,0.0,6.0,89,0.00,,---,0.00,VWS V14.01,2013-11-22 07:58:00,
2013-11-22 02:59:00,55.6,52.4,30.27,SW,215,0.0,6.0,89,0.00,,---,0.00,VWS V14.01,2013-11-22 07:59:00,
2013-11-22 03:00:00,55.7,52.5,30.27,SW,215,0.0,1.0,89,0.00,,---,0.00,VWS V14.01,2013-11-22 08:00:00,
2013-11-22 03:01:00,55.6,52.4,30.27,SSE,155,1.0,1.0,89,0.00,,---,0.00,VWS V14.01,2013-11-22 08:01:00,
2013-11-22 03:02:00,55.7,52.5,30.27,WSW,244,1.0,5.0,89,0.00,,---,0.00,VWS V14.01,2013-11-22 08:02:00,
2013-11-22 03:03:00,55.6,52.4,30.27,SSW,208,0.0,5.0,89,0.00,,---,0.00,VWS V14.01,2013-11-22 08:03:00,
2013-11-22 03:04:00,55.6,52.4,30.27,SSW,206,0.0,5.0,89,0.00,,---,0.00,VWS V14.01,2013-11-22 08:04:00,
2013-11-22 03:05:00,55.6,52.4,30.27,SSW,206,0.0,0.0,89,0.00,,---,0.00,VWS V14.01,2013-11-22 08:05:00,
2013-11-22 03:06:00,55.6,52.4,30.27,SSW,211,1.0,1.0,89,0.00,,---,0.00,VWS V14.01,2013-11-22 08:06:00,
2013-11-22 03:07:00,55.6,52.4,30.27,SSE,156,0.0,2.0,89,0.00,,---,0.00,VWS V14.01,2013-11-22 08:07:00,
2013-11-22 03:08:00,55.6,52.4,30.27,West,262,0.0,4.0,89,0.00,,---,0.00,VWS V14.01,2013-11-22 08:08:00,
2013-11-22 03:09:00,55.6,52.4,30.27,SE,140,2.0,4.0,89,0.00,,---,0.00,VWS V14.01,2013-11-22 08:09:00,
2013-11-22 03:10:00,55.6,52.4,30.27,South,179,0.0,0.0,89,0.00,,---,0.00,VWS V14.01,2013-11-22 08:10:00,
2013-11-22 03:11:00,55.6,52.4,30.27,South,179,1.0,1.0,89,0.00,,---,0.00,VWS V14.01,2013-11-22 08:11:00,
2013-11-22 03:12:00,55.5,52.3,30.26,ESE,115,1.0,4.0,89,0.00,,---,0.00,VWS V14.01,2013-11-22 08:12:00,
2013-11-22 03:13:00,55.5,52.3,30.26,West,266,0.0,4.0,89,0.00,,---,0.00,VWS V14.01,2013-11-22 08:13:00,
2013-11-22 03:14:00,55.5,52.3,30.27,West,272,1.0,4.0,89,0.00,,---,0.00,VWS V14.01,2013-11-22 08:14:00,
2013-11-22 03:15:00,55.5,52.3,30.27,WSW,258,0.0,0.0,89,0.00,,---,0.00,VWS V14.01,2013-11-22 08:15:00,
2013-11-22 03:16:00,55.5,52.3,30.26,SE,136,0.0,1.0,89,0.00,,---,0.00,VWS V14.01,2013-11-22 08:16:00,
2013-11-22 03:17:00,55.5,52.3,30.26,NNW,332,1.0,4.0,89,0.00,,---,0.00,VWS V14.01,2013-11-22 08:17:00,
2013-11-22 03:18:00,55.5,52.3,30.26,NNW,332,0.0,4.0,89,0.00,,---,0.00,VWS V14.01,2013-11-22 08:18:00,
2013-11-22 03:19:00,55.5,52.3,30.26,SE,145,0.0,4.0,89,0.00,,---,0.00,VWS V14.01,2013-11-22 08:19:00,
2013-11-22 03:20:00,55.5,52.3,30.26,SW,221,1.0,1.0,89,0.00,,---,0.00,VWS V14.01,2013-11-22 08:20:00,
2013-11-22 03:21:00,55.5,52.3,30.26,SE,146,0.0,2.0,89,0.00,,---,0.00,VWS V14.01,2013-11-22 08:21:00,
2013-11-22 03:22:00,55.5,52.3,30.26,WSW,256,1.0,2.0,89,0.00,,---,0.00,VWS V14.01,2013-11-22 08:22:00,
2013-11-22 03:23:00,55.5,52.6,30.26,SSE,152,0.0,3.0,90,0.00,,---,0.00,VWS V14.01,2013-11-22 08:23:00,
2013-11-22 03:24:00,55.5,52.6,30.26,WSW,239,1.0,4.0,90,0.00,,---,0.00,VWS V14.01,2013-11-22 08:24:00,
2013-11-22 03:25:00,55.4,52.5,30.26,WSW,238,0.0,0.0,90,0.00,,---,0.00,VWS V14.01,2013-11-22 08:25:00,
2013-11-22 03:26:00,55.4,52.2,30.26,West,260,0.0,5.0,89,0.00,,---,0.00,VWS V14.01,2013-11-22 08:26:00,
2013-11-22 03:27:00,55.4,52.2,30.26,SE,127,0.0,5.0,89,0.00,,---,0.00,VWS V14.01,2013-11-22 08:27:00,
2013-11-22 03:28:00,55.4,52.5,30.26,WSW,258,2.0,5.0,90,0.00,,---,0.00,VWS V14.01,2013-11-22 08:28:00,
2013-11-22 03:29:00,55.4,52.5,30.26,SE,127,1.0,5.0,90,0.00,,---,0.00,VWS V14.01,2013-11-22 08:29:00,
2013-11-22 03:30:00,55.4,52.5,30.26,SE,127,0.0,0.0,90,0.00,,---,0.00,VWS V14.01,2013-11-22 08:30:00,
2013-11-22 03:31:00,55.4,52.5,30.25,ESE,102,0.0,1.0,90,0.00,,---,0.00,VWS V14.01,2013-11-22 08:31:00,
2013-11-22 03:32:00,55.4,52.5,30.26,ESE,104,0.0,1.0,90,0.00,,---,0.00,VWS V14.01,2013-11-22 08:32:00,
2013-11-22 03:33:00,55.4,52.5,30.26,ESE,104,0.0,1.0,90,0.00,,---,0.00,VWS V14.01,2013-11-22 08:33:00,
2013-11-22 03:34:00,55.4,52.5,30.26,West,265,0.0,2.0,90,0.00,,---,0.00,VWS V14.01,2013-11-22 08:34:00,
2013-11-22 03:36:00,55.3,52.4,30.26,SW,221,0.0,1.0,90,0.00,,---,0.00,VWS V14.01,2013-11-22 08:36:00,
2013-11-22 03:37:00,55.3,52.4,30.26,SW,223,0.0,1.0,90,0.00,,---,0.00,VWS V14.01,2013-11-22 08:37:00,
2013-11-22 03:38:00,55.3,52.4,30.26,South,187,1.0,1.0,90,0.00,,---,0.00,VWS V14.01,2013-11-22 08:38:00,
2013-11-22 03:39:00,55.3,52.7,30.25,SSW,196,0.0,5.0,91,0.00,,---,0.00,VWS V14.01,2013-11-22 08:39:00,
2013-11-22 03:41:00,55.3,52.7,30.25,SSE,167,1.0,4.0,91,0.00,,---,0.00,VWS V14.01,2013-11-22 08:41:00,
2013-11-22 03:42:00,55.3,52.7,30.26,SE,140,0.0,4.0,91,0.00,,---,0.00,VWS V14.01,2013-11-22 08:42:00,
2013-11-22 03:43:00,55.2,52.6,30.25,SE,141,0.0,4.0,91,0.00,,---,0.00,VWS V14.01,2013-11-22 08:43:00,
2013-11-22 03:44:00,55.2,52.6,30.26,West,281,0.0,4.0,91,0.00,,---,0.00,VWS V14.01,2013-11-22 08:44:00,
2013-11-22 03:46:00,55.2,52.6,30.25,West,281,0.0,1.0,91,0.00,,---,0.00,VWS V14.01,2013-11-22 08:46:00,
2013-11-22 03:47:00,55.2,52.6,30.25,West,281,0.0,1.0,91,0.00,,---,0.00,VWS V14.01,2013-11-22 08:47:00,
2013-11-22 03:48:00,55.2,52.6,30.25,West,281,0.0,1.0,91,0.00,,---,0.00,VWS V14.01,2013-11-22 08:48:00,
2013-11-22 03:49:00,55.1,52.5,30.25,West,281,0.0,1.0,91,0.00,,---,0.00,VWS V14.01,2013-11-22 08:49:00,
2013-11-22 03:52:00,55.1,52.5,30.25,West,281,1.0,1.0,91,0.00,,---,0.00,VWS V14.01,2013-11-22 08:52:00,
2013-11-22 03:53:00,55.1,52.5,30.25,SE,138,0.0,2.0,91,0.00,,---,0.00,VWS V14.01,2013-11-22 08:53:00,
2013-11-22 03:54:00,55.1,52.5,30.25,SE,138,0.0,2.0,91,0.00,,---,0.00,VWS V14.01,2013-11-22 08:54:00,
2013-11-22 03:57:00,55.0,52.4,30.25,WSW,239,0.0,1.0,91,0.00,,---,0.00,VWS V14.01,2013-11-22 08:57:00,
2013-11-22 03:58:00,55.0,52.4,30.25,WSW,239,0.0,1.0,91,0.00,,---,0.00,VWS V14.01,2013-11-22 08:58:00,
2013-11-22 03:59:00,55.0,52.4,30.25,WSW,239,0.0,1.0,91,0.00,,---,0.00,VWS V14.01,2013-11-22 08:59:00,
2013-11-22 04:02:00,54.9,52.3,30.25,West,263,3.0,3.0,91,0.00,,---,0.00,VWS V14.01,2013-11-22 09:02:00,
2013-11-22 04:03:00,54.9,52.6,30.25,West,281,0.0,4.0,92,0.00,,---,0.00,VWS V14.01,2013-11-22 09:03:00,
2013-11-22 04:04:00,54.9,52.6,30.25,West,281,0.0,4.0,92,0.00,,---,0.00,VWS V14.01,2013-11-22 09:04:00,
2013-11-22 04:07:00,54.9,52.6,30.25,West,281,0.0,0.0,92,0.01,,---,0.01,VWS V14.01,2013-11-22 09:07:00,
2013-11-22 04:08:00,54.9,52.6,30.25,West,281,0.0,0.0,92,0.01,,---,0.01,VWS V14.01,2013-11-22 09:08:00,
2013-11-22 04:09:00,54.8,52.5,30.25,West,281,0.0,0.0,92,0.01,,---,0.01,VWS V14.01,2013-11-22 09:09:00,
2013-11-22 04:10:00,54.8,52.5,30.25,West,281,0.0,0.0,92,0.01,,---,0.01,VWS V14.01,2013-11-22 09:10:00,
2013-11-22 04:12:00,54.8,52.5,30.25,West,281,0.0,0.0,92,0.01,,---,0.01,VWS V14.01,2013-11-22 09:12:00,
2013-11-22 04:13:00,54.8,52.5,30.25,West,281,0.0,0.0,92,0.01,,---,0.01,VWS V14.01,2013-11-22 09:13:00,
2013-11-22 04:14:00,54.8,52.5,30.25,West,281,0.0,0.0,92,0.01,,---,0.01,VWS V14.01,2013-11-22 09:14:00,
2013-11-22 04:15:00,54.8,52.5,30.25,West,281,0.0,0.0,92,0.01,,---,0.01,VWS V14.01,2013-11-22 09:15:00,
2013-11-22 04:17:00,54.7,52.4,30.25,West,281,0.0,0.0,92,0.01,,---,0.01,VWS V14.01,2013-11-22 09:17:00,
2013-11-22 04:18:00,54.7,52.4,30.25,West,281,0.0,0.0,92,0.01,,---,0.01,VWS V14.01,2013-11-22 09:18:00,
2013-11-22 04:19:00,54.7,52.4,30.25,West,281,0.0,0.0,92,0.01,,---,0.01,VWS V14.01,2013-11-22 09:19:00,
2013-11-22 04:20:00,54.7,52.4,30.25,West,281,0.0,0.0,92,0.01,,---,0.01,VWS V14.01,2013-11-22 09:20:00,
2013-11-22 04:23:00,54.7,52.4,30.25,West,279,0.0,1.0,92,0.01,,---,0.01,VWS V14.01,2013-11-22 09:23:00,
2013-11-22 04:24:00,54.6,52.3,30.25,West,279,0.0,1.0,92,0.01,,---,0.01,VWS V14.01,2013-11-22 09:24:00,
2013-11-22 04:25:00,54.6,52.3,30.25,NW,308,0.0,1.0,92,0.01,,---,0.01,VWS V14.01,2013-11-22 09:25:00,
2013-11-22 04:28:00,54.5,52.2,30.25,ESE,116,0.0,2.0,92,0.02,,---,0.02,VWS V14.01,2013-11-22 09:28:00,
2013-11-22 04:29:00,54.5,52.2,30.25,SSW,212,0.0,2.0,92,0.02,,---,0.02,VWS V14.01,2013-11-22 09:29:00,
2013-11-22 04:30:00,54.5,52.2,30.25,SW,214,0.0,1.0,92,0.02,,---,0.02,VWS V14.01,2013-11-22 09:30:00,
2013-11-22 04:33:00,54.4,52.4,30.25,ENE,72,0.0,1.0,93,0.02,,---,0.02,VWS V14.01,2013-11-22 09:33:00,
2013-11-22 04:34:00,54.4,52.4,30.25,ENE,72,0.0,1.0,93,0.02,,---,0.02,VWS V14.01,2013-11-22 09:34:00,
2013-11-22 04:35:00,54.4,52.4,30.25,ENE,72,0.0,0.0,93,0.02,,---,0.02,VWS V14.01,2013-11-22 09:35:00,
2013-11-22 04:36:00,54.4,52.4,30.25,ENE,72,1.0,1.0,93,0.02,,---,0.02,VWS V14.01,2013-11-22 09:36:00,
2013-11-22 04:38:00,54.3,52.0,30.25,SW,224,1.0,1.0,92,0.02,,---,0.02,VWS V14.01,2013-11-22 09:38:00,
2013-11-22 04:39:00,54.3,52.0,30.25,SW,220,0.0,1.0,92,0.02,,---,0.02,VWS V14.01,2013-11-22 09:39:00,
2013-11-22 04:40:00,54.3,52.3,30.25,ENE,67,0.0,0.0,93,0.02,,---,0.02,VWS V14.01,2013-11-22 09:40:00,
2013-11-22 04:41:00,54.2,52.2,30.25,East,80,0.0,1.0,93,0.02,,---,0.02,VWS V14.01,2013-11-22 09:41:00,
2013-11-22 04:43:00,54.2,52.2,30.25,East,81,0.0,1.0,93,0.02,,---,0.02,VWS V14.01,2013-11-22 09:43:00,
2013-11-22 04:44:00,54.2,52.2,30.26,East,81,1.0,1.0,93,0.02,,---,0.02,VWS V14.01,2013-11-22 09:44:00,
2013-11-22 04:45:00,54.2,52.2,30.25,East,81,0.0,0.0,93,0.02,,---,0.02,VWS V14.01,2013-11-22 09:45:00,
2013-11-22 04:46:00,54.2,52.2,30.25,East,81,0.0,0.0,93,0.02,,---,0.02,VWS V14.01,2013-11-22 09:46:00,
2013-11-22 04:48:00,54.2,52.2,30.25,East,81,0.0,0.0,93,0.02,,---,0.02,VWS V14.01,2013-11-22 09:48:00,
2013-11-22 04:49:00,54.1,52.1,30.25,East,81,0.0,0.0,93,0.02,,---,0.02,VWS V14.01,2013-11-22 09:49:00,
2013-11-22 04:50:00,54.1,52.1,30.25,East,81,0.0,1.0,93,0.02,,---,0.02,VWS V14.01,2013-11-22 09:50:00,
2013-11-22 04:51:00,54.1,52.1,30.25,East,81,0.0,1.0,93,0.02,,---,0.02,VWS V14.01,2013-11-22 09:51:00,
2013-11-22 04:54:00,54.1,52.1,30.25,West,270,0.0,2.0,93,0.02,,---,0.02,VWS V14.01,2013-11-22 09:54:00,
2013-11-22 04:55:00,54.0,52.0,30.25,West,270,0.0,0.0,93,0.02,,---,0.02,VWS V14.01,2013-11-22 09:55:00,
2013-11-22 04:57:00,54.0,52.0,30.25,SSE,154,1.0,5.0,93,0.02,,---,0.02,VWS V14.01,2013-11-22 09:57:00,
2013-11-22 04:59:00,54.0,52.0,30.25,SSE,150,0.0,5.0,93,0.02,,---,0.02,VWS V14.01,2013-11-22 09:59:00,
2013-11-22 05:00:00,53.9,51.9,30.25,SSE,152,0.0,1.0,93,0.02,,---,0.02,VWS V14.01,2013-11-22 10:00:00,
2013-11-22 05:02:00,53.9,51.9,30.25,WNW,293,0.0,1.0,93,0.02,,---,0.02,VWS V14.01,2013-11-22 10:02:00,
2013-11-22 05:04:00,53.9,51.9,30.25,SW,216,0.0,2.0,93,0.02,,---,0.02,VWS V14.01,2013-11-22 10:04:00,
2013-11-22 05:05:00,53.9,51.9,30.25,SW,216,0.0,1.0,93,0.02,,---,0.02,VWS V14.01,2013-11-22 10:05:00,
2013-11-22 05:06:00,53.9,51.9,30.25,SW,216,0.0,1.0,93,0.02,,---,0.02,VWS V14.01,2013-11-22 10:06:00,
2013-11-22 05:07:00,53.9,51.9,30.25,West,269,0.0,3.0,93,0.02,,---,0.02,VWS V14.01,2013-11-22 10:07:00,
2013-11-22 05:09:00,53.8,51.8,30.25,SSE,161,0.0,3.0,93,0.02,,---,0.02,VWS V14.01,2013-11-22 10:09:00,
2013-11-22 05:10:00,53.8,52.1,30.25,WNW,300,0.0,2.0,94,0.01,,---,0.02,VWS V14.01,2013-11-22 10:10:00,
2013-11-22 05:11:00,53.8,52.1,30.25,WNW,300,0.0,2.0,94,0.01,,---,0.02,VWS V14.01,2013-11-22 10:11:00,
2013-11-22 05:12:00,53.8,52.1,30.25,SW,221,1.0,2.0,94,0.01,,---,0.02,VWS V14.01,2013-11-22 10:12:00,
2013-11-22 05:14:00,53.8,52.1,30.25,SSE,160,0.0,4.0,94,0.01,,---,0.02,VWS V14.01,2013-11-22 10:14:00,
2013-11-22 05:15:00,53.7,52.0,30.25,SSE,160,0.0,1.0,94,0.01,,---,0.02,VWS V14.01,2013-11-22 10:15:00,
2013-11-22 05:16:00,53.7,52.0,30.25,South,172,0.0,1.0,94,0.01,,---,0.02,VWS V14.01,2013-11-22 10:16:00,
2013-11-22 05:17:00,53.7,52.0,30.25,South,171,0.0,1.0,94,0.01,,---,0.02,VWS V14.01,2013-11-22 10:17:00,
2013-11-22 05:18:00,53.7,52.0,30.25,South,171,0.0,1.0,94,0.01,,---,0.02,VWS V14.01,2013-11-22 10:18:00,
2013-11-22 05:19:00,53.7,52.0,30.25,South,177,0.0,1.0,94,0.01,,---,0.02,VWS V14.01,2013-11-22 10:19:00,
2013-11-22 05:21:00,53.7,52.0,30.25,SSW,194,0.0,0.0,94,0.01,,---,0.02,VWS V14.01,2013-11-22 10:21:00,
2013-11-22 05:22:00,53.7,52.0,30.25,WNW,284,0.0,4.0,94,0.01,,---,0.02,VWS V14.01,2013-11-22 10:22:00,
2013-11-22 05:23:00,53.7,52.0,30.25,West,263,1.0,4.0,94,0.01,,---,0.02,VWS V14.01,2013-11-22 10:23:00,
2013-11-22 05:24:00,53.7,52.0,30.25,SSW,194,1.0,4.0,94,0.01,,---,0.02,VWS V14.01,2013-11-22 10:24:00,
2013-11-22 05:25:00,53.7,52.0,30.25,NE,41,0.0,1.0,94,0.01,,---,0.02,VWS V14.01,2013-11-22 10:25:00,
2013-11-22 05:26:00,53.7,52.0,30.25,SSW,192,0.0,2.0,94,0.01,,---,0.02,VWS V14.01,2013-11-22 10:26:00,
2013-11-22 05:27:00,53.7,52.0,30.24,East,96,0.0,2.0,94,0.01,,---,0.02,VWS V14.01,2013-11-22 10:27:00,
2013-11-22 05:29:00,53.7,52.0,30.24,SSE,156,0.0,2.0,94,0.01,,---,0.02,VWS V14.01,2013-11-22 10:29:00,
2013-11-22 05:30:00,53.6,51.9,30.24,SSW,195,2.0,2.0,94,0.00,,---,0.02,VWS V14.01,2013-11-22 10:30:00,
2013-11-22 05:31:00,53.6,51.9,30.24,SE,142,0.0,2.0,94,0.00,,---,0.02,VWS V14.01,2013-11-22 10:31:00,
2013-11-22 05:32:00,53.6,51.9,30.25,SE,144,1.0,2.0,94,0.00,,---,0.02,VWS V14.01,2013-11-22 10:32:00,
2013-11-22 05:34:00,53.6,51.9,30.25,SE,125,0.0,2.0,94,0.00,,---,0.02,VWS V14.01,2013-11-22 10:34:00,
2013-11-22 05:35:00,53.6,51.9,30.25,SE,125,0.0,0.0,94,0.00,,---,0.02,VWS V14.01,2013-11-22 10:35:00,
2013-11-22 05:36:00,53.6,51.9,30.25,SE,125,0.0,1.0,94,0.00,,---,0.02,VWS V14.01,2013-11-22 10:36:00,
2013-11-22 05:37:00,53.6,51.9,30.24,SSE,153,0.0,1.0,94,0.00,,---,0.02,VWS V14.01,2013-11-22 10:37:00,
2013-11-22 05:39:00,53.6,51.9,30.24,East,83,0.0,2.0,94,0.00,,---,0.02,VWS V14.01,2013-11-22 10:39:00,
2013-11-22 05:40:00,53.6,51.9,30.25,South,169,2.0,2.0,94,0.00,,---,0.02,VWS V14.01,2013-11-22 10:40:00,
2013-11-22 05:41:00,53.6,51.9,30.24,SW,219,0.0,2.0,94,0.00,,---,0.02,VWS V14.01,2013-11-22 10:41:00,
2013-11-22 05:42:00,53.6,51.9,30.24,SE,144,0.0,2.0,94,0.00,,---,0.02,VWS V14.01,2013-11-22 10:42:00,
2013-11-22 05:43:00,53.6,51.9,30.24,ESE,111,0.0,2.0,94,0.00,,---,0.02,VWS V14.01,2013-11-22 10:43:00,
2013-11-22 05:44:00,53.6,51.9,30.24,ENE,75,0.0,2.0,94,0.00,,---,0.02,VWS V14.01,2013-11-22 10:44:00,
2013-11-22 05:45:00,53.5,51.8,30.24,WNW,289,0.0,2.0,94,0.00,,---,0.02,VWS V14.01,2013-11-22 10:45:00,
2013-11-22 05:46:00,53.6,51.9,30.24,SW,221,1.0,2.0,94,0.00,,---,0.02,VWS V14.01,2013-11-22 10:46:00,
2013-11-22 05:47:00,53.5,51.8,30.24,SSW,206,0.0,2.0,94,0.00,,---,0.02,VWS V14.01,2013-11-22 10:47:00,
2013-11-22 05:48:00,53.5,51.8,30.24,SSW,206,0.0,2.0,94,0.00,,---,0.02,VWS V14.01,2013-11-22 10:48:00,
2013-11-22 05:49:00,53.5,51.8,30.24,SSW,206,0.0,2.0,94,0.00,,---,0.02,VWS V14.01,2013-11-22 10:49:00,
2013-11-22 05:50:00,53.5,51.8,30.24,South,169,1.0,1.0,94,0.00,,---,0.02,VWS V14.01,2013-11-22 10:50:00,
2013-11-22 05:51:00,53.5,51.8,30.24,WNW,301,0.0,2.0,94,0.00,,---,0.02,VWS V14.01,2013-11-22 10:51:00,
2013-11-22 05:52:00,53.5,52.1,30.24,WNW,302,1.0,2.0,95,0.00,,---,0.02,VWS V14.01,2013-11-22 10:52:00,
2013-11-22 05:54:00,53.5,52.1,30.24,WNW,302,0.0,2.0,95,0.00,,---,0.02,VWS V14.01,2013-11-22 10:54:00,
2013-11-22 05:55:00,53.5,52.1,30.24,SE,129,0.0,0.0,95,0.00,,---,0.02,VWS V14.01,2013-11-22 10:55:00,
2013-11-22 05:56:00,53.5,52.1,30.24,North,352,0.0,1.0,95,0.00,,---,0.02,VWS V14.01,2013-11-22 10:56:00,
2013-11-22 05:57:00,53.5,52.1,30.24,North,352,0.0,1.0,95,0.00,,---,0.02,VWS V14.01,2013-11-22 10:57:00,
2013-11-22 05:59:00,53.5,52.1,30.24,North,5,0.0,1.0,95,0.00,,---,0.02,VWS V14.01,2013-11-22 10:59:00,
2013-11-22 06:00:00,53.5,52.1,30.24,WNW,283,2.0,2.0,95,0.00,,---,0.02,VWS V14.01,2013-11-22 11:00:00,
2013-11-22 06:01:00,53.5,52.1,30.24,WSW,245,0.0,6.0,95,0.00,,---,0.02,VWS V14.01,2013-11-22 11:01:00,
2013-11-22 06:02:00,53.5,52.1,30.24,SE,140,1.0,6.0,95,0.00,,---,0.02,VWS V14.01,2013-11-22 11:02:00,
2013-11-22 06:04:00,53.5,52.1,30.24,South,183,0.0,6.0,95,0.00,,---,0.02,VWS V14.01,2013-11-22 11:04:00,
2013-11-22 06:05:00,53.5,52.1,30.24,SW,215,0.0,3.0,95,0.00,,---,0.02,VWS V14.01,2013-11-22 11:05:00,
2013-11-22 06:06:00,53.5,52.1,30.24,SW,215,0.0,3.0,95,0.00,,---,0.02,VWS V14.01,2013-11-22 11:06:00,
2013-11-22 06:07:00,53.5,52.1,30.24,SW,215,0.0,3.0,95,0.00,,---,0.02,VWS V14.01,2013-11-22 11:07:00,
2013-11-22 06:09:00,53.4,52.0,30.24,South,175,0.0,3.0,95,0.00,,---,0.02,VWS V14.01,2013-11-22 11:09:00,
2013-11-22 06:10:00,53.5,52.1,30.24,South,172,0.0,1.0,95,0.00,,---,0.02,VWS V14.01,2013-11-22 11:10:00,
2013-11-22 06:11:00,53.5,52.1,30.24,NNW,338,0.0,2.0,95,0.00,,---,0.02,VWS V14.01,2013-11-22 11:11:00,
2013-11-22 06:12:00,53.4,52.0,30.24,West,272,1.0,5.0,95,0.00,,---,0.02,VWS V14.01,2013-11-22 11:12:00,
2013-11-22 06:13:00,53.4,52.0,30.24,ESE,108,1.0,5.0,95,0.00,,---,0.02,VWS V14.01,2013-11-22 11:13:00,
2013-11-22 06:15:00,53.4,52.0,30.24,WSW,254,0.0,0.0,95,0.00,,---,0.02,VWS V14.01,2013-11-22 11:15:00,
2013-11-22 06:17:00,53.4,52.0,30.24,WNW,288,1.0,2.0,95,0.00,,---,0.02,VWS V14.01,2013-11-22 11:17:00,
2013-11-22 06:18:00,53.4,52.0,30.24,North,352,0.0,2.0,95,0.00,,---,0.02,VWS V14.01,2013-11-22 11:18:00,
2013-11-22 06:20:00,53.4,52.0,30.23,WNW,296,1.0,1.0,95,0.00,,---,0.02,VWS V14.01,2013-11-22 11:20:00,
2013-11-22 06:22:00,53.4,52.0,30.24,WNW,296,1.0,1.0,95,0.00,,---,0.02,VWS V14.01,2013-11-22 11:22:00,
2013-11-22 06:23:00,53.4,52.0,30.24,SSE,151,0.0,1.0,95,0.00,,---,0.02,VWS V14.01,2013-11-22 11:23:00,
2013-11-22 06:25:00,53.4,52.0,30.24,South,181,0.0,0.0,95,0.00,,---,0.02,VWS V14.01,2013-11-22 11:25:00,
2013-11-22 06:26:00,53.4,52.0,30.24,South,181,0.0,0.0,95,0.00,,---,0.02,VWS V14.01,2013-11-22 11:26:00,
2013-11-22 06:27:00,53.4,52.0,30.24,SSW,198,0.0,0.0,95,0.00,,---,0.02,VWS V14.01,2013-11-22 11:27:00,
2013-11-22 06:28:00,53.4,52.0,30.24,SSE,152,0.0,0.0,95,0.00,,---,0.02,VWS V14.01,2013-11-22 11:28:00,
2013-11-22 06:31:00,53.4,52.0,30.24,NW,326,0.0,0.0,95,0.00,,---,0.02,VWS V14.01,2013-11-22 11:31:00,
2013-11-22 06:32:00,53.4,52.0,30.24,NNW,327,0.0,0.0,95,0.00,,---,0.02,VWS V14.01,2013-11-22 11:32:00,
2013-11-22 06:33:00,53.4,52.0,30.24,East,89,0.0,0.0,95,0.00,,---,0.02,VWS V14.01,2013-11-22 11:33:00,
2013-11-22 06:36:00,53.4,52.0,30.24,South,189,2.0,4.0,95,0.00,,---,0.02,VWS V14.01,2013-11-22 11:36:00,
2013-11-22 06:37:00,53.4,52.0,30.24,SSW,211,0.0,4.0,95,0.00,,---,0.02,VWS V14.01,2013-11-22 11:37:00,
2013-11-22 06:38:00,53.3,51.9,30.24,SSW,211,0.0,4.0,95,0.00,,---,0.02,VWS V14.01,2013-11-22 11:38:00,
2013-11-22 06:41:00,53.4,52.0,30.24,South,186,0.0,0.0,95,0.00,,---,0.02,VWS V14.01,2013-11-22 11:41:00,
2013-11-22 06:42:00,53.3,51.9,30.24,SSW,193,1.0,1.0,95,0.00,,---,0.02,VWS V14.01,2013-11-22 11:42:00,
2013-11-22 06:43:00,53.4,52.0,30.24,WNW,300,1.0,3.0,95,0.00,,---,0.02,VWS V14.01,2013-11-22 11:43:00,
2013-11-22 06:44:00,53.3,51.9,30.24,WNW,291,0.0,3.0,95,0.00,,---,0.02,VWS V14.01,2013-11-22 11:44:00,
2013-11-22 06:46:00,53.3,51.9,30.24,SSW,192,0.0,2.0,95,0.00,,---,0.02,VWS V14.01,2013-11-22 11:46:00,
2013-11-22 06:47:00,53.4,52.0,30.24,South,178,0.0,2.0,95,0.00,,---,0.02,VWS V14.01,2013-11-22 11:47:00,
2013-11-22 06:48:00,53.3,51.9,30.24,West,260,4.0,4.0,95,0.00,,---,0.02,VWS V14.01,2013-11-22 11:48:00,
2013-11-22 06:49:00,53.4,52.0,30.24,SE,127,2.0,4.0,95,0.00,,---,0.02,VWS V14.01,2013-11-22 11:49:00,
2013-11-22 06:51:00,53.3,51.9,30.24,East,85,0.0,2.0,95,0.00,,---,0.02,VWS V14.01,2013-11-22 11:51:00,
2013-11-22 06:52:00,53.4,52.0,30.24,SSE,159,0.0,3.0,95,0.00,,---,0.02,VWS V14.01,2013-11-22 11:52:00,
2013-11-22 06:53:00,53.3,51.9,30.24,SSE,155,0.0,3.0,95,0.00,,---,0.02,VWS V14.01,2013-11-22 11:53:00,
2013-11-22 06:54:00,53.3,52.2,30.24,SSE,158,0.0,3.0,96,0.00,,---,0.02,VWS V14.01,2013-11-22 11:54:00,
2013-11-22 06:57:00,53.3,52.2,30.24,WSW,252,0.0,5.0,96,0.00,,---,0.02,VWS V14.01,2013-11-22 11:57:00,
2013-11-22 06:58:00,53.3,52.2,30.24,WSW,256,0.0,5.0,96,0.00,,---,0.02,VWS V14.01,2013-11-22 11:58:00,
2013-11-22 06:59:00,53.3,52.2,30.24,NE,49,0.0,5.0,96,0.00,,---,0.02,VWS V14.01,2013-11-22 11:59:00,
2013-11-22 07:02:00,53.3,52.2,30.24,SE,131,0.0,1.0,96,0.00,,---,0.02,VWS V14.01,2013-11-22 12:02:00,
2013-11-22 07:03:00,53.3,51.9,30.24,East,84,0.0,2.0,95,0.00,,---,0.02,VWS V14.01,2013-11-22 12:03:00,
2013-11-22 07:04:00,53.3,52.2,30.24,SE,142,0.0,3.0,96,0.00,,---,0.02,VWS V14.01,2013-11-22 12:04:00,
2013-11-22 07:07:00,53.3,51.9,30.24,WSW,257,0.0,2.0,95,0.00,,---,0.02,VWS V14.01,2013-11-22 12:07:00,
2013-11-22 07:08:00,53.3,52.2,30.24,North,352,1.0,4.0,96,0.00,,---,0.02,VWS V14.01,2013-11-22 12:08:00,
2013-11-22 07:09:00,53.3,52.2,30.24,NNW,347,0.0,4.0,96,0.00,,---,0.02,VWS V14.01,2013-11-22 12:09:00,
2013-11-22 07:12:00,53.3,51.9,30.24,SE,140,0.0,5.0,95,0.00,,---,0.02,VWS V14.01,2013-11-22 12:12:00,
2013-11-22 07:13:00,53.3,51.9,30.24,WNW,296,1.0,5.0,95,0.00,,---,0.02,VWS V14.01,2013-11-22 12:13:00,
2013-11-22 07:14:00,53.3,51.9,30.24,SE,131,2.0,5.0,95,0.00,,---,0.02,VWS V14.01,2013-11-22 12:14:00,
2013-11-22 07:15:00,53.3,51.9,30.25,SE,126,0.0,0.0,95,0.00,,---,0.02,VWS V14.01,2013-11-22 12:15:00,
2013-11-22 07:17:00,53.3,51.9,30.25,West,268,0.0,2.0,95,0.00,,---,0.02,VWS V14.01,2013-11-22 12:17:00,
2013-11-22 07:18:00,53.3,51.9,30.25,West,270,0.0,2.0,95,0.00,,---,0.02,VWS V14.01,2013-11-22 12:18:00,
2013-11-22 07:19:00,53.3,51.9,30.25,West,270,0.0,2.0,95,0.00,,---,0.02,VWS V14.01,2013-11-22 12:19:00,
2013-11-22 07:20:00,53.3,51.9,30.25,West,269,0.0,0.0,95,0.00,,---,0.02,VWS V14.01,2013-11-22 12:20:00,
2013-11-22 07:22:00,53.3,51.9,30.25,NW,322,0.0,2.0,95,0.00,,---,0.02,VWS V14.01,2013-11-22 12:22:00,
2013-11-22 07:23:00,53.3,52.2,30.25,NNE,22,0.0,2.0,96,0.00,,---,0.02,VWS V14.01,2013-11-22 12:23:00,
2013-11-22 07:24:00,53.3,52.2,30.25,NNE,22,0.0,2.0,96,0.00,,---,0.02,VWS V14.01,2013-11-22 12:24:00,
2013-11-22 07:25:00,53.3,52.2,30.25,NNE,22,0.0,0.0,96,0.00,,---,0.02,VWS V14.01,2013-11-22 12:25:00,
2013-11-22 07:27:00,53.2,52.1,30.25,SSE,158,0.0,2.0,96,0.00,,---,0.02,VWS V14.01,2013-11-22 12:27:00,
2013-11-22 07:28:00,53.3,52.2,30.25,SSW,198,0.0,2.0,96,0.00,,---,0.02,VWS V14.01,2013-11-22 12:28:00,
2013-11-22 07:29:00,53.3,52.2,30.25,SSW,197,0.0,2.0,96,0.00,,---,0.02,VWS V14.01,2013-11-22 12:29:00,
2013-11-22 07:30:00,53.3,52.2,30.25,SSW,194,0.0,1.0,96,0.00,,---,0.02,VWS V14.01,2013-11-22 12:30:00,
2013-11-22 07:32:00,53.2,52.1,30.25,South,181,0.0,5.0,96,0.00,,---,0.02,VWS V14.01,2013-11-22 12:32:00,
2013-11-22 07:34:00,53.3,52.2,30.25,SW,236,0.0,5.0,96,0.00,,---,0.02,VWS V14.01,2013-11-22 12:34:00,
2013-11-22 07:35:00,53.2,52.1,30.25,WSW,250,0.0,2.0,96,0.00,,---,0.02,VWS V14.01,2013-11-22 12:35:00,
2013-11-22 07:37:00,53.2,52.1,30.25,SW,218,0.0,2.0,96,0.00,,---,0.02,VWS V14.01,2013-11-22 12:37:00,
2013-11-22 07:39:00,53.2,52.1,30.25,SW,227,0.0,2.0,96,0.00,,---,0.02,VWS V14.01,2013-11-22 12:39:00,
2013-11-22 07:40:00,53.3,52.2,30.25,SSW,202,0.0,0.0,96,0.00,,---,0.02,VWS V14.01,2013-11-22 12:40:00,
2013-11-22 07:42:00,53.2,52.1,30.25,WNW,287,0.0,1.0,96,0.00,,---,0.02,VWS V14.01,2013-11-22 12:42:00,
2013-11-22 07:44:00,53.3,52.2,30.25,SSW,196,2.0,2.0,96,0.00,,---,0.02,VWS V14.01,2013-11-22 12:44:00,
2013-11-22 07:45:00,53.3,52.2,30.25,SSW,210,0.0,1.0,96,0.00,,---,0.02,VWS V14.01,2013-11-22 12:45:00,
2013-11-22 07:47:00,53.3,52.2,30.25,SSW,210,0.0,1.0,96,0.00,,---,0.02,VWS V14.01,2013-11-22 12:47:00,
2013-11-22 07:49:00,53.3,52.2,30.25,SW,216,0.0,1.0,96,0.00,,---,0.02,VWS V14.01,2013-11-22 12:49:00,
2013-11-22 07:50:00,53.2,52.1,30.25,SW,216,0.0,0.0,96,0.00,,---,0.02,VWS V14.01,2013-11-22 12:50:00,
2013-11-22 07:52:00,53.2,52.1,30.25,SSE,167,0.0,1.0,96,0.00,,---,0.02,VWS V14.01,2013-11-22 12:52:00,
2013-11-22 07:54:00,53.3,52.2,30.25,South,175,0.0,2.0,96,0.00,,---,0.02,VWS V14.01,2013-11-22 12:54:00,
2013-11-22 07:55:00,53.3,52.2,30.25,South,175,0.0,0.0,96,0.00,,---,0.02,VWS V14.01,2013-11-22 12:55:00,
2013-11-22 07:56:00,53.3,52.2,30.25,SE,129,0.0,1.0,96,0.00,,---,0.02,VWS V14.01,2013-11-22 12:56:00,
2013-11-22 07:57:00,53.3,52.2,30.25,SE,129,0.0,1.0,96,0.00,,---,0.02,VWS V14.01,2013-11-22 12:57:00,
2013-11-22 07:59:00,53.3,52.2,30.25,SE,139,0.0,1.0,96,0.00,,---,0.02,VWS V14.01,2013-11-22 12:59:00,
2013-11-22 08:00:00,53.3,52.2,30.25,SE,139,0.0,0.0,96,0.00,,---,0.02,VWS V14.01,2013-11-22 13:00:00,
2013-11-22 08:01:00,53.3,52.2,30.25,SE,139,0.0,0.0,96,0.00,,---,0.02,VWS V14.01,2013-11-22 13:01:00,
2013-11-22 08:03:00,53.3,52.2,30.25,SE,142,0.0,0.0,96,0.00,,---,0.02,VWS V14.01,2013-11-22 13:03:00,
2013-11-22 08:04:00,53.3,52.2,30.25,SE,142,0.0,0.0,96,0.00,,---,0.02,VWS V14.01,2013-11-22 13:04:00,
2013-11-22 08:05:00,53.3,52.2,30.25,East,90,2.0,2.0,96,0.00,,---,0.02,VWS V14.01,2013-11-22 13:05:00,
2013-11-22 08:06:00,53.3,52.2,30.25,SE,131,0.0,3.0,96,0.00,,---,0.02,VWS V14.01,2013-11-22 13:06:00,
2013-11-22 08:09:00,53.3,52.2,30.25,West,264,0.0,3.0,96,0.00,,---,0.02,VWS V14.01,2013-11-22 13:09:00,
2013-11-22 08:10:00,53.3,52.2,30.25,SSE,157,0.0,1.0,96,0.00,,---,0.02,VWS V14.01,2013-11-22 13:10:00,
2013-11-22 08:11:00,53.3,52.2,30.25,South,175,0.0,1.0,96,0.00,,---,0.02,VWS V14.01,2013-11-22 13:11:00,
2013-11-22 08:14:00,53.3,52.2,30.25,WSW,246,0.0,1.0,96,0.00,,---,0.02,VWS V14.01,2013-11-22 13:14:00,
2013-11-22 08:15:00,53.3,52.2,30.25,WSW,246,0.0,0.0,96,0.00,,---,0.02,VWS V14.01,2013-11-22 13:15:00,
2013-11-22 08:16:00,53.3,52.2,30.25,WSW,247,0.0,0.0,96,0.00,,---,0.02,VWS V14.01,2013-11-22 13:16:00,
2013-11-22 08:17:00,53.3,52.2,30.25,WSW,247,0.0,1.0,96,0.00,,---,0.02,VWS V14.01,2013-11-22 13:17:00,
2013-11-22 08:19:00,53.3,52.2,30.25,SSW,207,0.0,4.0,96,0.00,,---,0.02,VWS V14.01,2013-11-22 13:19:00,
2013-11-22 08:21:00,53.3,52.2,30.25,South,178,0.0,1.0,96,0.00,,---,0.02,VWS V14.01,2013-11-22 13:21:00,
2013-11-22 08:23:00,53.3,52.2,30.25,South,173,0.0,2.0,96,0.00,,---,0.02,VWS V14.01,2013-11-22 13:23:00,
2013-11-22 08:24:00,53.3,52.2,30.25,SE,127,0.0,2.0,96,0.00,,---,0.02,VWS V14.01,2013-11-22 13:24:00,
2013-11-22 08:25:00,53.3,52.2,30.25,SE,127,1.0,1.0,96,0.00,,---,0.02,VWS V14.01,2013-11-22 13:25:00,
2013-11-22 08:26:00,53.3,52.2,30.25,East,93,1.0,3.0,96,0.00,,---,0.02,VWS V14.01,2013-11-22 13:26:00,
2013-11-22 08:28:00,53.4,52.3,30.25,SE,128,2.0,5.0,96,0.00,,---,0.02,VWS V14.01,2013-11-22 13:28:00,
2013-11-22 08:29:00,53.4,52.3,30.25,NW,318,0.0,5.0,96,0.00,,---,0.02,VWS V14.01,2013-11-22 13:29:00,
2013-11-22 08:30:00,53.4,52.3,30.25,NW,318,0.0,0.0,96,0.00,,---,0.02,VWS V14.01,2013-11-22 13:30:00,
2013-11-22 08:31:00,53.4,52.3,30.25,NW,318,0.0,0.0,96,0.00,,---,0.02,VWS V14.01,2013-11-22 13:31:00,
2013-11-22 08:32:00,53.4,52.3,30.25,NW,318,0.0,0.0,96,0.00,,---,0.02,VWS V14.01,2013-11-22 13:32:00,
2013-11-22 08:33:00,53.4,52.3,30.25,NW,318,0.0,1.0,96,0.00,,---,0.02,VWS V14.01,2013-11-22 13:33:00,
2013-11-22 08:35:00,53.4,52.3,30.25,WNW,298,2.0,2.0,96,0.00,,---,0.02,VWS V14.01,2013-11-22 13:35:00,
2013-11-22 08:36:00,53.4,52.3,30.25,ESE,112,0.0,2.0,96,0.00,,---,0.02,VWS V14.01,2013-11-22 13:36:00,
2013-11-22 08:37:00,53.4,52.3,30.25,WNW,288,0.0,2.0,96,0.00,,---,0.02,VWS V14.01,2013-11-22 13:37:00,
2013-11-22 08:38:00,53.4,52.3,30.25,ESE,121,0.0,2.0,96,0.00,,---,0.02,VWS V14.01,2013-11-22 13:38:00,
2013-11-22 08:40:00,53.4,52.3,30.25,SE,128,0.0,0.0,96,0.00,,---,0.02,VWS V14.01,2013-11-22 13:40:00,
2013-11-22 08:41:00,53.4,52.3,30.25,SE,127,0.0,1.0,96,0.00,,---,0.02,VWS V14.01,2013-11-22 13:41:00,
2013-11-22 08:42:00,53.4,52.3,30.25,SW,226,1.0,2.0,96,0.00,,---,0.02,VWS V14.01,2013-11-22 13:42:00,
2013-11-22 08:43:00,53.4,52.3,30.25,West,277,2.0,2.0,96,0.00,,---,0.02,VWS V14.01,2013-11-22 13:43:00,
2013-11-22 08:45:00,53.4,52.3,30.25,SSW,192,0.0,0.0,96,0.00,,---,0.02,VWS V14.01,2013-11-22 13:45:00,
2013-11-22 08:46:00,53.4,52.3,30.25,SSW,192,0.0,0.0,96,0.00,,---,0.02,VWS V14.01,2013-11-22 13:46:00,
2013-11-22 08:47:00,53.5,52.4,30.25,SSW,192,0.0,0.0,96,0.00,,---,0.02,VWS V14.01,2013-11-22 13:47:00,
2013-11-22 08:49:00,53.4,52.3,30.25,NW,305,1.0,2.0,96,0.00,,---,0.02,VWS V14.01,2013-11-22 13:49:00,
2013-11-22 08:50:00,53.4,52.3,30.25,SSW,207,3.0,6.0,96,0.00,,---,0.02,VWS V14.01,2013-11-22 13:50:00,
2013-11-22 08:52:00,53.5,52.4,30.25,SW,225,0.0,6.0,96,0.00,,---,0.02,VWS V14.01,2013-11-22 13:52:00,
2013-11-22 08:55:00,53.4,52.3,30.25,WSW,252,0.0,0.0,96,0.00,,---,0.02,VWS V14.01,2013-11-22 13:55:00,
2013-11-22 08:57:00,53.5,52.4,30.25,West,279,0.0,1.0,96,0.00,,---,0.02,VWS V14.01,2013-11-22 13:57:00,
2013-11-22 09:00:00,53.5,52.4,30.25,SSE,147,0.0,0.0,96,0.00,,---,0.02,VWS V14.01,2013-11-22 14:00:00,
2013-11-22 09:01:00,53.5,52.4,30.25,SSE,147,0.0,0.0,96,0.00,,---,0.02,VWS V14.01,2013-11-22 14:01:00,
2013-11-22 09:02:00,53.5,52.4,30.25,SSE,147,0.0,0.0,96,0.00,,---,0.02,VWS V14.01,2013-11-22 14:02:00,
2013-11-22 09:05:00,53.5,52.4,30.25,SSW,192,0.0,0.0,96,0.00,,---,0.02,VWS V14.01,2013-11-22 14:05:00,
2013-11-22 09:06:00,53.5,52.4,30.25,SSW,192,0.0,0.0,96,0.00,,---,0.02,VWS V14.01,2013-11-22 14:06:00,
2013-11-22 09:07:00,53.5,52.4,30.25,WNW,302,0.0,1.0,96,0.00,,---,0.02,VWS V14.01,2013-11-22 14:07:00,
2013-11-22 09:08:00,53.5,52.4,30.26,WNW,293,0.0,1.0,96,0.00,,---,0.02,VWS V14.01,2013-11-22 14:08:00,
2013-11-22 09:10:00,53.5,52.4,30.26,WNW,293,0.0,0.0,96,0.00,,---,0.02,VWS V14.01,2013-11-22 14:10:00,
2013-11-22 09:11:00,53.6,52.5,30.26,WNW,293,0.0,0.0,96,0.00,,---,0.02,VWS V14.01,2013-11-22 14:11:00,
2013-11-22 09:13:00,53.6,52.5,30.26,WNW,291,0.0,0.0,96,0.00,,---,0.02,VWS V14.01,2013-11-22 14:13:00,
2013-11-22 09:15:00,53.6,52.5,30.26,South,176,0.0,0.0,96,0.00,,---,0.02,VWS V14.01,2013-11-22 14:15:00,
2013-11-22 09:16:00,53.6,52.5,30.26,South,176,0.0,0.0,96,0.00,,---,0.02,VWS V14.01,2013-11-22 14:16:00,
2013-11-22 09:18:00,53.6,52.5,30.26,SSE,151,0.0,1.0,96,0.00,,---,0.02,VWS V14.01,2013-11-22 14:18:00,
2013-11-22 09:21:00,53.6,52.5,30.26,SSE,153,0.0,0.0,96,0.00,,---,0.02,VWS V14.01,2013-11-22 14:21:00,
2013-11-22 09:23:00,53.7,52.6,30.26,SSE,153,0.0,1.0,96,0.00,,---,0.02,VWS V14.01,2013-11-22 14:23:00,
2013-11-22 09:24:00,53.7,52.6,30.26,SSE,153,0.0,1.0,96,0.00,,---,0.02,VWS V14.01,2013-11-22 14:24:00,
2013-11-22 09:26:00,53.7,52.6,30.26,SSW,200,0.0,1.0,96,0.00,,---,0.02,VWS V14.01,2013-11-22 14:26:00,
2013-11-22 09:28:00,53.7,52.6,30.26,SSW,202,0.0,1.0,96,0.00,,---,0.02,VWS V14.01,2013-11-22 14:28:00,
2013-11-22 09:29:00,53.7,52.6,30.26,SSW,201,1.0,1.0,96,0.00,,---,0.02,VWS V14.01,2013-11-22 14:29:00,
2013-11-22 09:31:00,53.7,52.6,30.26,WSW,242,1.0,3.0,96,0.00,,---,0.02,VWS V14.01,2013-11-22 14:31:00,
2013-11-22 09:33:00,53.7,52.6,30.26,SSE,161,0.0,3.0,96,0.00,,---,0.02,VWS V14.01,2013-11-22 14:33:00,
2013-11-22 09:35:00,53.7,52.6,30.26,SSE,158,0.0,0.0,96,0.00,,---,0.02,VWS V14.01,2013-11-22 14:35:00,
2013-11-22 09:36:00,53.8,52.7,30.26,SSE,155,0.0,1.0,96,0.00,,---,0.02,VWS V14.01,2013-11-22 14:36:00,
2013-11-22 09:37:00,53.7,52.6,30.26,South,179,0.0,1.0,96,0.00,,---,0.02,VWS V14.01,2013-11-22 14:37:00,
2013-11-22 09:38:00,53.8,52.7,30.27,South,181,0.0,1.0,96,0.00,,---,0.02,VWS V14.01,2013-11-22 14:38:00,
2013-11-22 09:39:00,53.8,52.7,30.27,South,181,0.0,1.0,96,0.00,,---,0.02,VWS V14.01,2013-11-22 14:39:00,
2013-11-22 09:40:00,53.8,52.7,30.27,South,181,0.0,0.0,96,0.00,,---,0.02,VWS V14.01,2013-11-22 14:40:00,
2013-11-22 09:41:00,53.8,52.7,30.27,South,181,0.0,0.0,96,0.00,,---,0.02,VWS V14.01,2013-11-22 14:41:00,
2013-11-22 09:42:00,53.8,52.7,30.27,South,181,0.0,0.0,96,0.00,,---,0.02,VWS V14.01,2013-11-22 14:42:00,
2013-11-22 09:43:00,53.8,52.7,30.27,South,181,0.0,1.0,96,0.00,,---,0.02,VWS V14.01,2013-11-22 14:43:00,
2013-11-22 09:44:00,53.8,52.7,30.27,South,181,0.0,1.0,96,0.00,,---,0.02,VWS V14.01,2013-11-22 14:44:00,
2013-11-22 09:45:00,53.8,52.7,30.27,South,181,0.0,0.0,96,0.00,,---,0.02,VWS V14.01,2013-11-22 14:45:00,
2013-11-22 09:46:00,53.8,52.7,30.27,South,181,0.0,0.0,96,0.00,,---,0.02,VWS V14.01,2013-11-22 14:46:00,
2013-11-22 09:47:00,53.8,52.7,30.27,South,181,0.0,0.0,96,0.00,,---,0.02,VWS V14.01,2013-11-22 14:47:00,
2013-11-22 09:49:00,53.9,52.8,30.27,South,181,0.0,0.0,96,0.00,,---,0.02,VWS V14.01,2013-11-22 14:49:00,
2013-11-22 09:50:00,53.9,52.8,30.27,South,181,0.0,0.0,96,0.00,,---,0.02,VWS V14.01,2013-11-22 14:50:00,
2013-11-22 09:51:00,53.9,52.8,30.27,South,187,0.0,0.0,96,0.00,,---,0.02,VWS V14.01,2013-11-22 14:51:00,
2013-11-22 09:52:00,53.9,52.8,30.27,South,186,0.0,0.0,96,0.00,,---,0.02,VWS V14.01,2013-11-22 14:52:00,
2013-11-22 09:54:00,53.9,52.8,30.27,South,182,1.0,1.0,96,0.00,,---,0.02,VWS V14.01,2013-11-22 14:54:00,
2013-11-22 09:55:00,53.9,52.8,30.27,WSW,251,0.0,1.0,96,0.00,,---,0.02,VWS V14.01,2013-11-22 14:55:00,
2013-11-22 09:56:00,53.9,52.8,30.27,WSW,251,0.0,1.0,96,0.00,,---,0.02,VWS V14.01,2013-11-22 14:56:00,
2013-11-22 09:57:00,53.9,52.8,30.27,WSW,251,0.0,1.0,96,0.00,,---,0.02,VWS V14.01,2013-11-22 14:57:00,
2013-11-22 09:59:00,53.9,52.8,30.27,SSE,152,0.0,2.0,96,0.00,,---,0.02,VWS V14.01,2013-11-22 14:59:00,
2013-11-22 10:00:00,53.9,52.8,30.27,SSE,152,0.0,0.0,96,0.00,,---,0.02,VWS V14.01,2013-11-22 15:00:00,
2013-11-22 10:01:00,53.9,52.8,30.27,SSE,165,0.0,0.0,96,0.00,,---,0.02,VWS V14.01,2013-11-22 15:01:00,
2013-11-22 10:02:00,54.0,52.9,30.27,SSE,165,1.0,1.0,96,0.00,,---,0.02,VWS V14.01,2013-11-22 15:02:00,
2013-11-22 10:04:00,54.0,52.9,30.27,SSE,165,0.0,1.0,96,0.00,,---,0.02,VWS V14.01,2013-11-22 15:04:00,
2013-11-22 10:05:00,54.0,52.9,30.27,SE,146,0.0,0.0,96,0.00,,---,0.02,VWS V14.01,2013-11-22 15:05:00,
2013-11-22 10:06:00,54.0,52.9,30.27,SSE,153,0.0,1.0,96,0.00,,---,0.02,VWS V14.01,2013-11-22 15:06:00,
2013-11-22 10:07:00,54.0,52.9,30.27,SE,145,0.0,1.0,96,0.00,,---,0.02,VWS V14.01,2013-11-22 15:07:00,
2013-11-22 10:10:00,54.1,53.0,30.27,West,275,1.0,2.0,96,0.00,,---,0.02,VWS V14.01,2013-11-22 15:10:00,
2013-11-22 10:11:00,54.1,53.0,30.27,SSE,160,0.0,2.0,96,0.00,,---,0.02,VWS V14.01,2013-11-22 15:11:00,
2013-11-22 10:12:00,54.1,53.0,30.27,SSE,160,0.0,2.0,96,0.00,,---,0.02,VWS V14.01,2013-11-22 15:12:00,
2013-11-22 10:13:00,54.1,53.0,30.27,SSE,160,0.0,2.0,96,0.00,,---,0.02,VWS V14.01,2013-11-22 15:13:00,
2013-11-22 10:15:00,54.2,53.1,30.27,SE,140,0.0,0.0,96,0.00,,---,0.02,VWS V14.01,2013-11-22 15:15:00,
2013-11-22 10:16:00,54.2,53.1,30.26,SE,140,0.0,1.0,96,0.00,,---,0.02,VWS V14.01,2013-11-22 15:16:00,
2013-11-22 10:17:00,54.2,53.1,30.27,SE,140,0.0,1.0,96,0.00,,---,0.02,VWS V14.01,2013-11-22 15:17:00,
2013-11-22 10:18:00,54.2,53.1,30.27,SE,140,0.0,1.0,96,0.00,,---,0.02,VWS V14.01,2013-11-22 15:18:00,
2013-11-22 10:20:00,54.3,53.2,30.27,SE,140,0.0,0.0,96,0.00,,---,0.02,VWS V14.01,2013-11-22 15:20:00,
2013-11-22 10:21:00,54.3,53.2,30.27,SSE,157,0.0,3.0,96,0.00,,---,0.02,VWS V14.01,2013-11-22 15:21:00,
2013-11-22 10:22:00,54.3,53.2,30.27,SSE,157,0.0,3.0,96,0.00,,---,0.02,VWS V14.01,2013-11-22 15:22:00,
2013-11-22 10:23:00,54.3,53.2,30.27,West,259,2.0,3.0,96,0.00,,---,0.02,VWS V14.01,2013-11-22 15:23:00,
2013-11-22 10:25:00,54.4,53.3,30.27,SW,215,0.0,0.0,96,0.00,,---,0.02,VWS V14.01,2013-11-22 15:25:00,
2013-11-22 10:27:00,54.4,53.3,30.27,SW,227,0.0,1.0,96,0.00,,---,0.02,VWS V14.01,2013-11-22 15:27:00,
2013-11-22 10:28:00,54.4,53.3,30.27,SW,227,0.0,1.0,96,0.00,,---,0.02,VWS V14.01,2013-11-22 15:28:00,
2013-11-22 10:31:00,54.5,53.4,30.27,SSE,162,0.0,2.0,96,0.00,,---,0.02,VWS V14.01,2013-11-22 15:31:00,
2013-11-22 10:32:00,54.5,53.4,30.27,South,171,1.0,3.0,96,0.00,,---,0.02,VWS V14.01,2013-11-22 15:32:00,
2013-11-22 10:33:00,54.5,53.4,30.27,South,188,0.0,3.0,96,0.00,,---,0.02,VWS V14.01,2013-11-22 15:33:00,
2013-11-22 10:34:00,54.5,53.4,30.27,WNW,294,0.0,3.0,96,0.00,,---,0.02,VWS V14.01,2013-11-22 15:34:00,
2013-11-22 10:36:00,54.6,53.5,30.27,SE,125,1.0,3.0,96,0.00,,---,0.02,VWS V14.01,2013-11-22 15:36:00,
2013-11-22 10:37:00,54.6,53.5,30.27,South,179,0.0,4.0,96,0.00,,---,0.02,VWS V14.01,2013-11-22 15:37:00,
2013-11-22 10:38:00,54.6,53.5,30.27,ESE,121,0.0,4.0,96,0.00,,---,0.02,VWS V14.01,2013-11-22 15:38:00,
2013-11-22 10:39:00,54.6,53.5,30.27,SSE,147,0.0,4.0,96,0.00,,---,0.02,VWS V14.01,2013-11-22 15:39:00,
2013-11-22 10:41:00,54.6,53.5,30.27,SSE,148,0.0,0.0,96,0.00,,---,0.02,VWS V14.01,2013-11-22 15:41:00,
2013-11-22 10:42:00,54.6,53.5,30.27,SE,139,1.0,2.0,96,0.00,,---,0.02,VWS V14.01,2013-11-22 15:42:00,
2013-11-22 10:43:00,54.6,53.5,30.27,SE,140,0.0,2.0,96,0.00,,---,0.02,VWS V14.01,2013-11-22 15:43:00,
2013-11-22 10:44:00,54.7,53.6,30.27,West,281,2.0,2.0,96,0.00,,---,0.02,VWS V14.01,2013-11-22 15:44:00,
2013-11-22 10:46:00,54.7,53.6,30.27,WNW,282,1.0,4.0,96,0.00,,---,0.02,VWS V14.01,2013-11-22 15:46:00,
2013-11-22 10:47:00,54.7,53.6,30.27,SSE,167,0.0,4.0,96,0.00,,---,0.02,VWS V14.01,2013-11-22 15:47:00,
2013-11-22 10:48:00,54.7,53.6,30.27,SE,140,0.0,4.0,96,0.00,,---,0.02,VWS V14.01,2013-11-22 15:48:00,
2013-11-22 10:49:00,54.8,53.7,30.27,East,96,0.0,4.0,96,0.00,,---,0.02,VWS V14.01,2013-11-22 15:49:00,
2013-11-22 10:51:00,54.8,53.7,30.26,WSW,248,1.0,2.0,96,0.00,,---,0.02,VWS V14.01,2013-11-22 15:51:00,
2013-11-22 10:53:00,54.8,53.7,30.26,WSW,248,0.0,2.0,96,0.00,,---,0.02,VWS V14.01,2013-11-22 15:53:00,
2013-11-22 10:54:00,54.8,53.7,30.26,WSW,250,0.0,2.0,96,0.00,,---,0.02,VWS V14.01,2013-11-22 15:54:00,
2013-11-22 10:55:00,54.8,53.7,30.26,SSE,167,4.0,4.0,96,0.00,,---,0.02,VWS V14.01,2013-11-22 15:55:00,
2013-11-22 10:57:00,54.9,53.8,30.26,SSW,206,0.0,6.0,96,0.00,,---,0.02,VWS V14.01,2013-11-22 15:57:00,
2013-11-22 10:58:00,54.9,53.8,30.26,ENE,75,0.0,6.0,96,0.00,,---,0.02,VWS V14.01,2013-11-22 15:58:00,
2013-11-22 10:59:00,54.9,53.8,30.26,SE,127,2.0,6.0,96,0.00,,---,0.02,VWS V14.01,2013-11-22 15:59:00,
2013-11-22 11:00:00,54.9,53.8,30.26,SE,128,0.0,2.0,96,0.00,,---,0.02,VWS V14.01,2013-11-22 16:00:00,
2013-11-22 11:02:00,54.9,53.8,30.26,SE,128,0.0,2.0,96,0.00,,---,0.02,VWS V14.01,2013-11-22 16:02:00,
2013-11-22 11:03:00,55.0,53.9,30.26,SE,128,0.0,2.0,96,0.00,,---,0.02,VWS V14.01,2013-11-22 16:03:00,
2013-11-22 11:04:00,55.0,53.9,30.26,SE,128,0.0,2.0,96,0.00,,---,0.02,VWS V14.01,2013-11-22 16:04:00,
2013-11-22 11:06:00,55.0,53.9,30.26,SE,128,0.0,0.0,96,0.00,,---,0.02,VWS V14.01,2013-11-22 16:06:00,
2013-11-22 11:07:00,55.0,53.9,30.26,SE,128,0.0,0.0,96,0.00,,---,0.02,VWS V14.01,2013-11-22 16:07:00,
2013-11-22 11:08:00,55.1,54.0,30.26,SE,128,0.0,0.0,96,0.00,,---,0.02,VWS V14.01,2013-11-22 16:08:00,
2013-11-22 11:09:00,55.0,53.9,30.26,SE,128,0.0,0.0,96,0.00,,---,0.02,VWS V14.01,2013-11-22 16:09:00,
2013-11-22 11:11:00,55.1,54.0,30.25,ESE,119,0.0,2.0,96,0.00,,---,0.02,VWS V14.01,2013-11-22 16:11:00,
2013-11-22 11:12:00,55.1,54.0,30.25,ESE,119,0.0,2.0,96,0.00,,---,0.02,VWS V14.01,2013-11-22 16:12:00,
2013-11-22 11:13:00,55.1,54.0,30.25,ESE,119,0.0,2.0,96,0.00,,---,0.02,VWS V14.01,2013-11-22 16:13:00,
2013-11-22 11:14:00,55.1,54.0,30.25,ESE,119,0.0,2.0,96,0.00,,---,0.02,VWS V14.01,2013-11-22 16:14:00,
2013-11-22 11:15:00,55.1,54.0,30.25,SW,214,1.0,4.0,96,0.00,,---,0.02,VWS V14.01,2013-11-22 16:15:00,
2013-11-22 11:17:00,55.1,53.7,30.25,SE,137,2.0,4.0,95,0.00,,---,0.02,VWS V14.01,2013-11-22 16:17:00,
2013-11-22 11:18:00,55.2,54.1,30.25,WSW,244,0.0,4.0,96,0.00,,---,0.02,VWS V14.01,2013-11-22 16:18:00,
2013-11-22 11:19:00,55.2,54.1,30.25,WSW,243,0.0,4.0,96,0.00,,---,0.02,VWS V14.01,2013-11-22 16:19:00,
2013-11-22 11:20:00,55.2,53.8,30.25,SSE,154,0.0,2.0,95,0.00,,---,0.02,VWS V14.01,2013-11-22 16:20:00,
2013-11-22 11:22:00,55.2,53.8,30.25,SSE,158,1.0,2.0,95,0.00,,---,0.02,VWS V14.01,2013-11-22 16:22:00,
2013-11-22 11:23:00,55.2,53.8,30.25,SSE,158,0.0,2.0,95,0.00,,---,0.02,VWS V14.01,2013-11-22 16:23:00,
2013-11-22 11:24:00,55.2,53.8,30.25,SSE,158,0.0,2.0,95,0.00,,---,0.02,VWS V14.01,2013-11-22 16:24:00,
2013-11-22 11:25:00,55.2,53.8,30.25,SSE,156,0.0,0.0,95,0.00,,---,0.02,VWS V14.01,2013-11-22 16:25:00,
2013-11-22 11:27:00,55.3,53.9,30.25,SSE,158,0.0,1.0,95,0.00,,---,0.02,VWS V14.01,2013-11-22 16:27:00,
2013-11-22 11:28:00,55.3,53.9,30.25,SSE,158,0.0,1.0,95,0.00,,---,0.02,VWS V14.01,2013-11-22 16:28:00,
2013-11-22 11:30:00,55.3,53.9,30.25,ENE,66,0.0,0.0,95,0.00,,---,0.02,VWS V14.01,2013-11-22 16:30:00,
2013-11-22 11:31:00,55.3,53.9,30.25,NW,307,1.0,1.0,95,0.00,,---,0.02,VWS V14.01,2013-11-22 16:31:00,
2013-11-22 11:32:00,55.3,53.9,30.25,SE,131,0.0,3.0,95,0.00,,---,0.02,VWS V14.01,2013-11-22 16:32:00,
2013-11-22 11:33:00,55.4,54.0,30.25,SE,131,0.0,3.0,95,0.00,,---,0.02,VWS V14.01,2013-11-22 16:33:00,
2013-11-22 11:34:00,55.3,53.9,30.25,SE,141,4.0,4.0,95,0.00,,---,0.02,VWS V14.01,2013-11-22 16:34:00,
2013-11-22 11:35:00,55.3,53.9,30.24,ENE,72,1.0,2.0,95,0.00,,---,0.02,VWS V14.01,2013-11-22 16:35:00,
2013-11-22 11:36:00,55.3,53.9,30.25,ESE,113,2.0,2.0,95,0.00,,---,0.02,VWS V14.01,2013-11-22 16:36:00,
2013-11-22 11:38:00,55.4,54.0,30.24,WNW,295,0.0,2.0,95,0.00,,---,0.02,VWS V14.01,2013-11-22 16:38:00,
2013-11-22 11:39:00,55.4,54.0,30.25,NNW,347,0.0,2.0,95,0.00,,---,0.02,VWS V14.01,2013-11-22 16:39:00,
2013-11-22 11:40:00,55.4,54.0,30.25,ENE,76,0.0,0.0,95,0.00,,---,0.02,VWS V14.01,2013-11-22 16:40:00,
2013-11-22 11:41:00,55.4,54.0,30.25,East,85,0.0,0.0,95,0.00,,---,0.02,VWS V14.01,2013-11-22 16:41:00,
2013-11-22 11:43:00,55.4,54.0,30.25,East,85,0.0,0.0,95,0.00,,---,0.02,VWS V14.01,2013-11-22 16:43:00,
2013-11-22 11:44:00,55.4,54.0,30.25,East,85,0.0,1.0,95,0.00,,---,0.02,VWS V14.01,2013-11-22 16:44:00,
2013-11-22 11:45:00,55.4,54.0,30.24,East,85,0.0,0.0,95,0.00,,---,0.02,VWS V14.01,2013-11-22 16:45:00,
2013-11-22 11:46:00,55.5,54.1,30.24,ESE,106,0.0,1.0,95,0.00,,---,0.02,VWS V14.01,2013-11-22 16:46:00,
2013-11-22 11:49:00,55.5,54.1,30.24,East,94,0.0,4.0,95,0.00,,---,0.02,VWS V14.01,2013-11-22 16:49:00,
2013-11-22 11:50:00,55.5,54.1,30.24,SE,133,0.0,1.0,95,0.00,,---,0.02,VWS V14.01,2013-11-22 16:50:00,
2013-11-22 11:51:00,55.5,54.1,30.24,SE,137,1.0,1.0,95,0.00,,---,0.02,VWS V14.01,2013-11-22 16:51:00,
2013-11-22 11:54:00,55.6,54.2,30.24,SSE,160,0.0,1.0,95,0.00,,---,0.02,VWS V14.01,2013-11-22 16:54:00,
2013-11-22 11:55:00,55.6,54.2,30.24,SSE,160,0.0,0.0,95,0.00,,---,0.02,VWS V14.01,2013-11-22 16:55:00,
2013-11-22 11:56:00,55.6,54.2,30.24,SSE,160,0.0,0.0,95,0.00,,---,0.02,VWS V14.01,2013-11-22 16:56:00,
2013-11-22 11:57:00,55.6,54.2,30.24,SSE,160,0.0,0.0,95,0.00,,---,0.02,VWS V14.01,2013-11-22 16:57:00,
2013-11-22 11:59:00,55.6,54.2,30.24,West,262,0.0,2.0,95,0.00,,---,0.02,VWS V14.01,2013-11-22 16:59:00,
2013-11-22 12:01:00,55.6,54.2,30.24,West,261,0.0,1.0,95,0.00,,---,0.02,VWS V14.01,2013-11-22 17:01:00,
2013-11-22 12:02:00,55.7,54.3,30.24,South,176,0.0,1.0,95,0.00,,---,0.02,VWS V14.01,2013-11-22 17:02:00,
2013-11-22 12:04:00,55.7,54.3,30.24,South,176,0.0,1.0,95,0.00,,---,0.02,VWS V14.01,2013-11-22 17:04:00,
2013-11-22 12:06:00,55.7,54.3,30.24,SSE,163,0.0,0.0,95,0.00,,---,0.02,VWS V14.01,2013-11-22 17:06:00,
2013-11-22 12:07:00,55.7,54.3,30.24,SSE,149,0.0,2.0,95,0.00,,---,0.02,VWS V14.01,2013-11-22 17:07:00,
2013-11-22 12:09:00,55.8,54.4,30.24,SSE,149,0.0,2.0,95,0.00,,---,0.02,VWS V14.01,2013-11-22 17:09:00,
2013-11-22 12:10:00,55.8,54.4,30.24,SSE,149,0.0,0.0,95,0.00,,---,0.02,VWS V14.01,2013-11-22 17:10:00,
2013-11-22 12:11:00,55.8,54.4,30.24,SSE,149,0.0,0.0,95,0.00,,---,0.02,VWS V14.01,2013-11-22 17:11:00,
2013-11-22 12:13:00,55.8,54.4,30.24,SSE,149,0.0,0.0,95,0.00,,---,0.02,VWS V14.01,2013-11-22 17:13:00,
2013-11-22 12:14:00,55.8,54.4,30.24,SSE,149,0.0,0.0,95,0.00,,---,0.02,VWS V14.01,2013-11-22 17:14:00,
2013-11-22 12:15:00,55.8,54.4,30.24,SSE,149,0.0,0.0,95,0.00,,---,0.02,VWS V14.01,2013-11-22 17:15:00,
2013-11-22 12:16:00,55.9,54.5,30.24,SSE,148,0.0,0.0,95,0.00,,---,0.02,VWS V14.01,2013-11-22 17:16:00,
2013-11-22 12:18:00,55.9,54.5,30.23,SSE,148,0.0,0.0,95,0.00,,---,0.02,VWS V14.01,2013-11-22 17:18:00,
2013-11-22 12:19:00,55.9,54.5,30.24,SSE,148,0.0,0.0,95,0.00,,---,0.02,VWS V14.01,2013-11-22 17:19:00,
2013-11-22 12:20:00,55.9,54.5,30.23,SSE,148,0.0,0.0,95,0.00,,---,0.02,VWS V14.01,2013-11-22 17:20:00,
2013-11-22 12:21:00,55.9,54.5,30.23,SSE,158,0.0,0.0,95,0.00,,---,0.02,VWS V14.01,2013-11-22 17:21:00,
2013-11-22 12:22:00,55.9,54.5,30.23,SSE,158,0.0,0.0,95,0.00,,---,0.02,VWS V14.01,2013-11-22 17:22:00,
2013-11-22 12:24:00,56.0,54.6,30.23,SSE,158,0.0,1.0,95,0.00,,---,0.02,VWS V14.01,2013-11-22 17:24:00,
2013-11-22 12:25:00,56.0,54.6,30.23,SSE,158,0.0,0.0,95,0.00,,---,0.02,VWS V14.01,2013-11-22 17:25:00,
2013-11-22 12:27:00,56.0,54.6,30.23,SSE,158,0.0,0.0,95,0.00,,---,0.02,VWS V14.01,2013-11-22 17:27:00,
2013-11-22 12:30:00,56.0,54.6,30.22,SSE,158,0.0,1.0,95,0.00,,---,0.02,VWS V14.01,2013-11-22 17:30:00,
2013-11-22 12:32:00,56.1,54.7,30.22,SE,137,0.0,1.0,95,0.00,,---,0.02,VWS V14.01,2013-11-22 17:32:00,
2013-11-22 12:35:00,56.2,54.8,30.22,SE,137,0.0,0.0,95,0.00,,---,0.02,VWS V14.01,2013-11-22 17:35:00,
2013-11-22 12:36:00,56.2,54.8,30.21,SE,137,0.0,0.0,95,0.00,,---,0.02,VWS V14.01,2013-11-22 17:36:00,
2013-11-22 12:38:00,56.2,54.8,30.21,SE,138,0.0,2.0,95,0.00,,---,0.02,VWS V14.01,2013-11-22 17:38:00,
2013-11-22 12:40:00,56.2,54.8,30.21,SE,138,0.0,0.0,95,0.00,,---,0.02,VWS V14.01,2013-11-22 17:40:00,
2013-11-22 12:41:00,56.2,54.8,30.21,SE,138,0.0,0.0,95,0.00,,---,0.02,VWS V14.01,2013-11-22 17:41:00,
2013-11-22 12:43:00,56.2,54.8,30.21,SE,138,0.0,0.0,95,0.00,,---,0.02,VWS V14.01,2013-11-22 17:43:00,
2013-11-22 12:45:00,56.2,54.8,30.21,SE,138,0.0,0.0,95,0.00,,---,0.02,VWS V14.01,2013-11-22 17:45:00,
2013-11-22 12:46:00,56.3,54.9,30.21,SE,135,1.0,1.0,95,0.00,,---,0.02,VWS V14.01,2013-11-22 17:46:00,
2013-11-22 12:48:00,56.3,54.9,30.21,SE,135,0.0,1.0,95,0.00,,---,0.02,VWS V14.01,2013-11-22 17:48:00,
2013-11-22 12:50:00,56.3,54.9,30.20,SE,136,0.0,0.0,95,0.00,,---,0.02,VWS V14.01,2013-11-22 17:50:00,
2013-11-22 12:51:00,56.3,54.9,30.20,SE,136,0.0,0.0,95,0.00,,---,0.02,VWS V14.01,2013-11-22 17:51:00,
2013-11-22 12:52:00,56.3,54.9,30.20,SE,136,0.0,1.0,95,0.00,,---,0.02,VWS V14.01,2013-11-22 17:52:00,
2013-11-22 12:53:00,56.3,54.9,30.20,SE,133,0.0,1.0,95,0.00,,---,0.02,VWS V14.01,2013-11-22 17:53:00,
2013-11-22 12:55:00,56.3,54.9,30.20,SE,133,0.0,0.0,95,0.00,,---,0.02,VWS V14.01,2013-11-22 17:55:00,
2013-11-22 12:56:00,56.3,54.9,30.20,SE,133,0.0,0.0,95,0.00,,---,0.02,VWS V14.01,2013-11-22 17:56:00,
2013-11-22 12:57:00,56.3,54.9,30.20,ESE,117,0.0,1.0,95,0.00,,---,0.02,VWS V14.01,2013-11-22 17:57:00,
2013-11-22 12:58:00,56.4,55.0,30.20,ESE,117,0.0,1.0,95,0.00,,---,0.02,VWS V14.01,2013-11-22 17:58:00,
2013-11-22 13:01:00,56.4,55.0,30.20,ESE,117,0.0,0.0,95,0.00,,---,0.02,VWS V14.01,2013-11-22 18:01:00,
2013-11-22 13:02:00,56.4,55.0,30.20,NNE,21,0.0,5.0,95,0.00,,---,0.02,VWS V14.01,2013-11-22 18:02:00,
2013-11-22 13:03:00,56.4,55.0,30.19,ESE,121,0.0,5.0,95,0.00,,---,0.02,VWS V14.01,2013-11-22 18:03:00,
2013-11-22 13:06:00,56.5,55.1,30.19,SSE,147,0.0,0.0,95,0.00,,---,0.02,VWS V14.01,2013-11-22 18:06:00,
2013-11-22 13:07:00,56.5,55.1,30.19,SSE,152,0.0,4.0,95,0.00,,---,0.02,VWS V14.01,2013-11-22 18:07:00,
2013-11-22 13:08:00,56.4,55.0,30.19,NNW,342,0.0,4.0,95,0.00,,---,0.02,VWS V14.01,2013-11-22 18:08:00,
2013-11-22 13:09:00,56.5,55.1,30.19,NNW,342,0.0,4.0,95,0.00,,---,0.02,VWS V14.01,2013-11-22 18:09:00,
2013-11-22 13:11:00,56.5,55.1,30.19,SSW,193,0.0,2.0,95,0.00,,---,0.02,VWS V14.01,2013-11-22 18:11:00,
2013-11-22 13:12:00,56.5,55.1,30.19,South,175,0.0,2.0,95,0.00,,---,0.02,VWS V14.01,2013-11-22 18:12:00,
2013-11-22 13:13:00,56.5,55.1,30.19,SSE,157,0.0,2.0,95,0.00,,---,0.02,VWS V14.01,2013-11-22 18:13:00,
2013-11-22 13:14:00,56.5,55.1,30.19,SSW,208,0.0,2.0,95,0.00,,---,0.02,VWS V14.01,2013-11-22 18:14:00,
2013-11-22 13:15:00,56.5,55.1,30.19,SSW,208,0.0,0.0,95,0.00,,---,0.02,VWS V14.01,2013-11-22 18:15:00,
2013-11-22 13:16:00,56.5,55.1,30.19,SSW,206,0.0,0.0,95,0.00,,---,0.02,VWS V14.01,2013-11-22 18:16:00,
2013-11-22 13:17:00,56.6,55.2,30.19,SSE,156,1.0,2.0,95,0.00,,---,0.02,VWS V14.01,2013-11-22 18:17:00,
2013-11-22 13:19:00,56.6,55.2,30.19,South,176,0.0,2.0,95,0.00,,---,0.02,VWS V14.01,2013-11-22 18:19:00,
2013-11-22 13:20:00,56.6,55.2,30.19,South,176,0.0,0.0,95,0.00,,---,0.02,VWS V14.01,2013-11-22 18:20:00,
2013-11-22 13:21:00,56.6,55.2,30.19,South,176,0.0,0.0,95,0.00,,---,0.02,VWS V14.01,2013-11-22 18:21:00,
2013-11-22 13:22:00,56.6,55.2,30.19,South,176,0.0,0.0,95,0.00,,---,0.02,VWS V14.01,2013-11-22 18:22:00,
2013-11-22 13:24:00,56.6,55.2,30.19,South,179,0.0,1.0,95,0.00,,---,0.02,VWS V14.01,2013-11-22 18:24:00,
2013-11-22 13:25:00,56.7,55.3,30.19,SW,236,0.0,2.0,95,0.00,,---,0.02,VWS V14.01,2013-11-22 18:25:00,
2013-11-22 13:26:00,56.6,55.2,30.19,SW,236,0.0,2.0,95,0.00,,---,0.02,VWS V14.01,2013-11-22 18:26:00,
2013-11-22 13:27:00,56.6,54.9,30.19,SSE,168,0.0,2.0,94,0.00,,---,0.02,VWS V14.01,2013-11-22 18:27:00,
2013-11-22 13:28:00,56.7,55.0,30.19,South,179,0.0,2.0,94,0.00,,---,0.02,VWS V14.01,2013-11-22 18:28:00,
2013-11-22 13:29:00,56.7,55.0,30.19,SSW,203,1.0,2.0,94,0.00,,---,0.02,VWS V14.01,2013-11-22 18:29:00,
2013-11-22 13:30:00,56.7,55.0,30.19,SE,140,2.0,2.0,94,0.00,,---,0.02,VWS V14.01,2013-11-22 18:30:00,
2013-11-22 13:31:00,56.7,55.0,30.18,SE,141,0.0,2.0,94,0.00,,---,0.02,VWS V14.01,2013-11-22 18:31:00,
2013-11-22 13:32:00,56.7,55.0,30.18,SE,141,0.0,2.0,94,0.00,,---,0.02,VWS V14.01,2013-11-22 18:32:00,
2013-11-22 13:33:00,56.7,55.0,30.18,SE,142,0.0,2.0,94,0.00,,---,0.02,VWS V14.01,2013-11-22 18:33:00,
2013-11-22 13:35:00,56.7,55.0,30.18,SE,142,0.0,0.0,94,0.00,,---,0.02,VWS V14.01,2013-11-22 18:35:00,
2013-11-22 13:36:00,56.7,55.0,30.18,SE,142,0.0,1.0,94,0.00,,---,0.02,VWS V14.01,2013-11-22 18:36:00,
2013-11-22 13:37:00,56.8,55.1,30.18,SE,142,0.0,1.0,94,0.00,,---,0.02,VWS V14.01,2013-11-22 18:37:00,
2013-11-22 13:38:00,56.8,55.1,30.18,SE,142,0.0,1.0,94,0.00,,---,0.02,VWS V14.01,2013-11-22 18:38:00,
2013-11-22 13:40:00,56.8,55.1,30.18,SW,233,0.0,1.0,94,0.00,,---,0.02,VWS V14.01,2013-11-22 18:40:00,
2013-11-22 13:41:00,56.9,55.2,30.18,SW,233,1.0,1.0,94,0.00,,---,0.02,VWS V14.01,2013-11-22 18:41:00,
2013-11-22 13:42:00,56.9,55.2,30.18,SW,233,0.0,1.0,94,0.00,,---,0.02,VWS V14.01,2013-11-22 18:42:00,
2013-11-22 13:43:00,56.9,55.5,30.18,SW,235,1.0,1.0,95,0.00,,---,0.02,VWS V14.01,2013-11-22 18:43:00,
2013-11-22 13:45:00,57.0,55.6,30.18,SSE,151,0.0,4.0,95,0.00,,---,0.02,VWS V14.01,2013-11-22 18:45:00,
2013-11-22 13:46:00,57.0,55.6,30.18,SSE,152,0.0,4.0,95,0.00,,---,0.02,VWS V14.01,2013-11-22 18:46:00,
2013-11-22 13:47:00,57.0,55.6,30.18,SSE,152,0.0,4.0,95,0.00,,---,0.02,VWS V14.01,2013-11-22 18:47:00,
2013-11-22 13:49:00,57.1,55.7,30.18,South,183,0.0,4.0,95,0.00,,---,0.02,VWS V14.01,2013-11-22 18:49:00,
2013-11-22 13:51:00,57.1,55.7,30.18,West,268,1.0,4.0,95,0.00,,---,0.02,VWS V14.01,2013-11-22 18:51:00,
2013-11-22 13:52:00,57.1,55.7,30.18,West,268,0.0,4.0,95,0.00,,---,0.02,VWS V14.01,2013-11-22 18:52:00,
2013-11-22 13:54:00,57.2,55.8,30.18,West,268,0.0,4.0,95,0.00,,---,0.02,VWS V14.01,2013-11-22 18:54:00,
2013-11-22 13:56:00,57.2,55.5,30.18,West,266,0.0,1.0,94,0.00,,---,0.02,VWS V14.01,2013-11-22 18:56:00,
2013-11-22 13:57:00,57.3,55.6,30.18,West,266,0.0,1.0,94,0.00,,---,0.02,VWS V14.01,2013-11-22 18:57:00,
2013-11-22 13:59:00,57.3,55.6,30.18,West,266,0.0,1.0,94,0.00,,---,0.02,VWS V14.01,2013-11-22 18:59:00,
2013-11-22 14:01:00,57.3,55.6,30.18,West,267,0.0,1.0,94,0.00,,---,0.02,VWS V14.01,2013-11-22 19:01:00,
2013-11-22 14:02:00,57.3,55.6,30.18,West,267,0.0,1.0,94,0.00,,---,0.02,VWS V14.01,2013-11-22 19:02:00,
2013-11-22 14:04:00,57.4,55.7,30.18,West,267,0.0,1.0,94,0.00,,---,0.02,VWS V14.01,2013-11-22 19:04:00,
2013-11-22 14:06:00,57.4,55.7,30.18,ESE,114,0.0,1.0,94,0.00,,---,0.02,VWS V14.01,2013-11-22 19:06:00,
2013-11-22 14:07:00,57.4,55.7,30.18,WSW,248,1.0,2.0,94,0.00,,---,0.02,VWS V14.01,2013-11-22 19:07:00,
2013-11-22 14:08:00,57.4,55.7,30.18,WSW,248,0.0,2.0,94,0.00,,---,0.02,VWS V14.01,2013-11-22 19:08:00,
2013-11-22 14:09:00,57.4,55.7,30.18,WSW,248,0.0,2.0,94,0.00,,---,0.02,VWS V14.01,2013-11-22 19:09:00,
2013-11-22 14:11:00,57.4,55.7,30.18,WSW,248,0.0,1.0,94,0.00,,---,0.02,VWS V14.01,2013-11-22 19:11:00,
2013-11-22 14:12:00,57.5,55.8,30.18,WSW,248,0.0,1.0,94,0.00,,---,0.02,VWS V14.01,2013-11-22 19:12:00,
2013-11-22 14:14:00,57.5,55.8,30.18,West,264,0.0,2.0,94,0.00,,---,0.02,VWS V14.01,2013-11-22 19:14:00,
2013-11-22 14:16:00,57.5,55.8,30.18,West,264,0.0,1.0,94,0.00,,---,0.02,VWS V14.01,2013-11-22 19:16:00,
2013-11-22 14:17:00,57.5,55.8,30.18,West,264,0.0,1.0,94,0.00,,---,0.02,VWS V14.01,2013-11-22 19:17:00,
2013-11-22 14:19:00,57.6,55.9,30.18,West,264,0.0,2.0,94,0.00,,---,0.02,VWS V14.01,2013-11-22 19:19:00,
2013-11-22 14:21:00,57.6,55.9,30.18,West,264,0.0,1.0,94,0.00,,---,0.02,VWS V14.01,2013-11-22 19:21:00,
2013-11-22 14:22:00,57.6,55.9,30.18,West,264,0.0,1.0,94,0.00,,---,0.02,VWS V14.01,2013-11-22 19:22:00,
2013-11-22 14:24:00,57.6,55.9,30.18,West,264,0.0,1.0,94,0.00,,---,0.02,VWS V14.01,2013-11-22 19:24:00,
2013-11-22 14:26:00,57.6,55.9,30.18,West,264,0.0,0.0,94,0.00,,---,0.02,VWS V14.01,2013-11-22 19:26:00,
2013-11-22 14:27:00,57.6,55.6,30.18,WSW,252,1.0,2.0,93,0.00,,---,0.02,VWS V14.01,2013-11-22 19:27:00,
2013-11-22 14:28:00,57.6,55.6,30.18,WSW,252,0.0,2.0,93,0.00,,---,0.02,VWS V14.01,2013-11-22 19:28:00,
2013-11-22 14:29:00,57.6,55.6,30.18,WSW,252,0.0,2.0,93,0.00,,---,0.02,VWS V14.01,2013-11-22 19:29:00,
2013-11-22 14:30:00,57.6,55.6,30.17,WSW,252,0.0,0.0,93,0.00,,---,0.02,VWS V14.01,2013-11-22 19:30:00,
2013-11-22 14:31:00,57.6,55.6,30.17,WSW,252,0.0,0.0,93,0.00,,---,0.02,VWS V14.01,2013-11-22 19:31:00,
2013-11-22 14:32:00,57.6,55.6,30.17,WSW,252,0.0,0.0,93,0.00,,---,0.02,VWS V14.01,2013-11-22 19:32:00,
2013-11-22 14:33:00,57.6,55.6,30.17,WSW,252,0.0,0.0,93,0.00,,---,0.02,VWS V14.01,2013-11-22 19:33:00,
2013-11-22 14:34:00,57.6,55.6,30.17,WSW,252,0.0,0.0,93,0.00,,---,0.02,VWS V14.01,2013-11-22 19:34:00,
2013-11-22 14:35:00,57.6,55.6,30.17,WSW,252,0.0,0.0,93,0.00,,---,0.02,VWS V14.01,2013-11-22 19:35:00,
2013-11-22 14:36:00,57.6,55.6,30.18,WSW,252,0.0,0.0,93,0.00,,---,0.02,VWS V14.01,2013-11-22 19:36:00,
2013-11-22 14:37:00,57.6,55.6,30.18,WSW,252,0.0,0.0,93,0.00,,---,0.02,VWS V14.01,2013-11-22 19:37:00,
2013-11-22 14:38:00,57.6,55.6,30.17,WSW,252,0.0,0.0,93,0.00,,---,0.02,VWS V14.01,2013-11-22 19:38:00,
2013-11-22 14:39:00,57.6,55.6,30.17,WSW,252,0.0,0.0,93,0.00,,---,0.02,VWS V14.01,2013-11-22 19:39:00,
2013-11-22 14:40:00,57.6,55.6,30.17,WSW,252,0.0,0.0,93,0.00,,---,0.02,VWS V14.01,2013-11-22 19:40:00,
2013-11-22 14:42:00,57.6,55.6,30.18,WSW,252,0.0,0.0,93,0.00,,---,0.02,VWS V14.01,2013-11-22 19:42:00,
2013-11-22 14:43:00,57.6,55.6,30.17,WSW,252,0.0,0.0,93,0.00,,---,0.02,VWS V14.01,2013-11-22 19:43:00,
2013-11-22 14:44:00,57.6,55.6,30.17,WSW,252,0.0,0.0,93,0.00,,---,0.02,VWS V14.01,2013-11-22 19:44:00,
2013-11-22 14:45:00,57.6,55.6,30.17,WSW,252,0.0,0.0,93,0.00,,---,0.02,VWS V14.01,2013-11-22 19:45:00,
2013-11-22 14:47:00,57.6,55.6,30.17,WSW,252,0.0,0.0,93,0.00,,---,0.02,VWS V14.01,2013-11-22 19:47:00,
2013-11-22 14:48:00,57.6,55.6,30.18,WSW,252,0.0,1.0,93,0.00,,---,0.02,VWS V14.01,2013-11-22 19:48:00,
2013-11-22 14:50:00,57.6,55.6,30.17,WSW,252,0.0,0.0,93,0.00,,---,0.02,VWS V14.01,2013-11-22 19:50:00,
2013-11-22 14:52:00,57.6,55.6,30.17,WSW,252,0.0,0.0,93,0.00,,---,0.02,VWS V14.01,2013-11-22 19:52:00,
2013-11-22 14:53:00,57.6,55.6,30.17,WSW,252,0.0,0.0,93,0.00,,---,0.02,VWS V14.01,2013-11-22 19:53:00,
2013-11-22 14:55:00,57.6,55.6,30.17,WSW,252,0.0,0.0,93,0.00,,---,0.02,VWS V14.01,2013-11-22 19:55:00,
2013-11-22 14:56:00,57.6,55.6,30.17,WSW,252,0.0,0.0,93,0.00,,---,0.02,VWS V14.01,2013-11-22 19:56:00,
2013-11-22 14:57:00,57.5,55.5,30.17,WSW,252,0.0,0.0,93,0.00,,---,0.02,VWS V14.01,2013-11-22 19:57:00,
2013-11-22 14:58:00,57.5,55.5,30.17,WSW,252,0.0,0.0,93,0.00,,---,0.02,VWS V14.01,2013-11-22 19:58:00,
2013-11-22 14:59:00,57.5,55.5,30.16,WSW,252,0.0,0.0,93,0.00,,---,0.02,VWS V14.01,2013-11-22 19:59:00,
2013-11-22 15:00:00,57.5,55.8,30.16,WSW,252,0.0,0.0,94,0.00,,---,0.02,VWS V14.01,2013-11-22 20:00:00,
2013-11-22 15:01:00,57.5,55.8,30.17,WSW,252,0.0,0.0,94,0.00,,---,0.02,VWS V14.01,2013-11-22 20:01:00,
2013-11-22 15:02:00,57.5,55.8,30.17,WSW,252,0.0,0.0,94,0.00,,---,0.02,VWS V14.01,2013-11-22 20:02:00,
2013-11-22 15:03:00,57.5,55.8,30.17,WSW,252,0.0,0.0,94,0.00,,---,0.02,VWS V14.01,2013-11-22 20:03:00,
2013-11-22 15:04:00,57.5,55.8,30.17,WSW,252,0.0,0.0,94,0.00,,---,0.02,VWS V14.01,2013-11-22 20:04:00,
2013-11-22 15:06:00,57.5,55.8,30.17,WSW,252,0.0,0.0,94,0.00,,---,0.02,VWS V14.01,2013-11-22 20:06:00,
2013-11-22 15:07:00,57.5,55.8,30.17,WSW,252,0.0,0.0,94,0.00,,---,0.02,VWS V14.01,2013-11-22 20:07:00,
2013-11-22 15:08:00,57.5,55.8,30.17,WSW,252,0.0,0.0,94,0.00,,---,0.02,VWS V14.01,2013-11-22 20:08:00,
2013-11-22 15:09:00,57.5,55.8,30.17,WSW,252,0.0,0.0,94,0.00,,---,0.02,VWS V14.01,2013-11-22 20:09:00,
2013-11-22 15:11:00,57.5,55.8,30.17,WSW,252,0.0,0.0,94,0.00,,---,0.02,VWS V14.01,2013-11-22 20:11:00,
2013-11-22 15:12:00,57.5,55.8,30.17,WSW,252,0.0,0.0,94,0.00,,---,0.02,VWS V14.01,2013-11-22 20:12:00,
2013-11-22 15:13:00,57.5,55.8,30.17,WSW,252,0.0,0.0,94,0.00,,---,0.02,VWS V14.01,2013-11-22 20:13:00,
2013-11-22 15:14:00,57.5,55.8,30.17,WSW,252,0.0,0.0,94,0.00,,---,0.02,VWS V14.01,2013-11-22 20:14:00,
2013-11-22 15:16:00,57.5,55.8,30.17,WSW,252,0.0,0.0,94,0.00,,---,0.02,VWS V14.01,2013-11-22 20:16:00,
2013-11-22 15:17:00,57.5,55.8,30.17,WSW,252,0.0,0.0,94,0.00,,---,0.02,VWS V14.01,2013-11-22 20:17:00,
2013-11-22 15:19:00,57.5,55.8,30.17,WSW,252,0.0,0.0,94,0.00,,---,0.02,VWS V14.01,2013-11-22 20:19:00,
2013-11-22 15:22:00,57.5,55.8,30.17,WSW,252,0.0,0.0,94,0.01,,---,0.03,VWS V14.01,2013-11-22 20:22:00,
2013-11-22 15:24:00,57.5,55.8,30.16,WSW,252,0.0,1.0,94,0.03,,---,0.05,VWS V14.01,2013-11-22 20:24:00,
2013-11-22 15:27:00,57.5,55.8,30.16,WSW,252,0.0,0.0,94,0.04,,---,0.06,VWS V14.01,2013-11-22 20:27:00,
2013-11-22 15:29:00,57.6,55.9,30.16,WSW,252,0.0,0.0,94,0.04,,---,0.06,VWS V14.01,2013-11-22 20:29:00,
2013-11-22 15:30:00,57.5,55.8,30.16,WSW,252,0.0,0.0,94,0.04,,---,0.06,VWS V14.01,2013-11-22 20:30:00,
2013-11-22 15:32:00,57.5,55.8,30.17,WSW,252,0.0,1.0,94,0.04,,---,0.06,VWS V14.01,2013-11-22 20:32:00,
2013-11-22 15:34:00,57.5,55.8,30.17,WSW,252,0.0,1.0,94,0.04,,---,0.06,VWS V14.01,2013-11-22 20:34:00,
2013-11-22 15:35:00,57.5,55.8,30.17,WSW,252,0.0,0.0,94,0.04,,---,0.06,VWS V14.01,2013-11-22 20:35:00,
2013-11-22 15:37:00,57.5,55.8,30.17,WSW,252,0.0,0.0,94,0.04,,---,0.06,VWS V14.01,2013-11-22 20:37:00,
2013-11-22 15:38:00,57.5,55.8,30.17,WSW,252,0.0,0.0,94,0.05,,---,0.07,VWS V14.01,2013-11-22 20:38:00,
2013-11-22 15:39:00,57.5,55.8,30.17,WSW,252,2.0,2.0,94,0.05,,---,0.07,VWS V14.01,2013-11-22 20:39:00,
2013-11-22 15:40:00,57.5,55.8,30.17,WSW,252,0.0,1.0,94,0.05,,---,0.07,VWS V14.01,2013-11-22 20:40:00,
2013-11-22 15:42:00,57.5,55.8,30.17,WSW,252,0.0,1.0,94,0.05,,---,0.07,VWS V14.01,2013-11-22 20:42:00,
2013-11-22 15:43:00,57.5,55.8,30.17,WSW,252,0.0,1.0,94,0.05,,---,0.07,VWS V14.01,2013-11-22 20:43:00,
2013-11-22 15:44:00,57.5,55.8,30.17,WSW,252,0.0,1.0,94,0.05,,---,0.07,VWS V14.01,2013-11-22 20:44:00,
2013-11-22 15:45:00,57.5,55.8,30.17,WSW,252,0.0,0.0,94,0.05,,---,0.07,VWS V14.01,2013-11-22 20:45:00,
2013-11-22 15:47:00,57.5,55.8,30.17,WSW,252,0.0,0.0,94,0.05,,---,0.07,VWS V14.01,2013-11-22 20:47:00,
2013-11-22 15:48:00,57.5,55.8,30.17,WSW,252,0.0,0.0,94,0.05,,---,0.07,VWS V14.01,2013-11-22 20:48:00,
2013-11-22 15:50:00,57.5,55.8,30.17,WSW,252,0.0,0.0,94,0.05,,---,0.07,VWS V14.01,2013-11-22 20:50:00,
2013-11-22 15:51:00,57.5,55.8,30.17,WSW,252,0.0,0.0,94,0.05,,---,0.07,VWS V14.01,2013-11-22 20:51:00,
2013-11-22 15:52:00,57.5,55.8,30.17,WSW,252,0.0,0.0,94,0.05,,---,0.07,VWS V14.01,2013-11-22 20:52:00,
2013-11-22 15:53:00,57.5,55.8,30.17,WSW,252,0.0,0.0,94,0.05,,---,0.07,VWS V14.01,2013-11-22 20:53:00,
2013-11-22 15:55:00,57.5,55.8,30.17,WSW,252,0.0,0.0,94,0.05,,---,0.07,VWS V14.01,2013-11-22 20:55:00,
2013-11-22 15:56:00,57.5,55.8,30.17,WSW,252,0.0,0.0,94,0.05,,---,0.07,VWS V14.01,2013-11-22 20:56:00,
2013-11-22 15:57:00,57.5,55.8,30.17,WSW,252,0.0,0.0,94,0.05,,---,0.07,VWS V14.01,2013-11-22 20:57:00,
2013-11-22 15:58:00,57.5,55.8,30.17,WSW,252,0.0,0.0,94,0.05,,---,0.07,VWS V14.01,2013-11-22 20:58:00,
2013-11-22 16:00:00,57.5,55.8,30.17,WSW,252,0.0,0.0,94,0.05,,---,0.07,VWS V14.01,2013-11-22 21:00:00,
2013-11-22 16:01:00,57.4,55.7,30.17,WSW,252,0.0,0.0,94,0.05,,---,0.07,VWS V14.01,2013-11-22 21:01:00,
2013-11-22 16:02:00,57.4,55.7,30.17,WSW,252,0.0,1.0,94,0.05,,---,0.07,VWS V14.01,2013-11-22 21:02:00,
2013-11-22 16:03:00,57.4,55.7,30.17,WSW,252,0.0,1.0,94,0.05,,---,0.07,VWS V14.01,2013-11-22 21:03:00,
2013-11-22 16:05:00,57.4,55.7,30.17,WSW,252,0.0,0.0,94,0.05,,---,0.07,VWS V14.01,2013-11-22 21:05:00,
2013-11-22 16:06:00,57.4,55.7,30.17,WSW,252,0.0,0.0,94,0.05,,---,0.07,VWS V14.01,2013-11-22 21:06:00,
2013-11-22 16:07:00,57.4,55.7,30.17,WSW,252,0.0,0.0,94,0.05,,---,0.07,VWS V14.01,2013-11-22 21:07:00,
2013-11-22 16:08:00,57.4,55.7,30.17,WSW,252,0.0,0.0,94,0.05,,---,0.07,VWS V14.01,2013-11-22 21:08:00,
2013-11-22 16:09:00,57.4,55.7,30.17,WSW,252,0.0,0.0,94,0.05,,---,0.07,VWS V14.01,2013-11-22 21:09:00,
2013-11-22 16:10:00,57.4,55.7,30.17,WSW,252,0.0,0.0,94,0.05,,---,0.07,VWS V14.01,2013-11-22 21:10:00,
2013-11-22 16:11:00,57.4,56.0,30.17,WSW,252,0.0,0.0,95,0.05,,---,0.07,VWS V14.01,2013-11-22 21:11:00,
2013-11-22 16:12:00,57.3,55.9,30.17,WSW,252,0.0,0.0,95,0.05,,---,0.07,VWS V14.01,2013-11-22 21:12:00,
2013-11-22 16:13:00,57.4,56.0,30.17,WSW,252,0.0,0.0,95,0.05,,---,0.07,VWS V14.01,2013-11-22 21:13:00,
2013-11-22 16:14:00,57.3,55.9,30.17,WSW,252,0.0,0.0,95,0.05,,---,0.07,VWS V14.01,2013-11-22 21:14:00,
2013-11-22 16:15:00,57.3,55.9,30.17,WSW,252,0.0,0.0,95,0.05,,---,0.07,VWS V14.01,2013-11-22 21:15:00,
2013-11-22 16:16:00,57.3,55.9,30.17,WSW,252,0.0,0.0,95,0.05,,---,0.07,VWS V14.01,2013-11-22 21:16:00,
2013-11-22 16:17:00,57.3,55.9,30.17,WSW,252,0.0,0.0,95,0.05,,---,0.07,VWS V14.01,2013-11-22 21:17:00,
2013-11-22 16:19:00,57.3,55.9,30.17,WSW,252,0.0,0.0,95,0.05,,---,0.07,VWS V14.01,2013-11-22 21:19:00,
2013-11-22 16:20:00,57.3,55.9,30.17,WSW,252,0.0,0.0,95,0.05,,---,0.07,VWS V14.01,2013-11-22 21:20:00,
2013-11-22 16:21:00,57.3,55.9,30.17,WSW,252,0.0,0.0,95,0.05,,---,0.07,VWS V14.01,2013-11-22 21:21:00,
2013-11-22 16:22:00,57.3,55.9,30.17,WSW,252,0.0,0.0,95,0.05,,---,0.07,VWS V14.01,2013-11-22 21:22:00,
2013-11-22 16:24:00,57.3,55.9,30.17,WSW,252,0.0,0.0,95,0.05,,---,0.07,VWS V14.01,2013-11-22 21:24:00,
2013-11-22 16:25:00,57.3,55.9,30.17,WSW,252,0.0,0.0,95,0.02,,---,0.07,VWS V14.01,2013-11-22 21:25:00,
2013-11-22 16:26:00,57.3,55.9,30.17,WSW,252,0.0,0.0,95,0.02,,---,0.07,VWS V14.01,2013-11-22 21:26:00,
2013-11-22 16:27:00,57.3,55.9,30.17,WSW,252,0.0,0.0,95,0.02,,---,0.07,VWS V14.01,2013-11-22 21:27:00,
2013-11-22 16:29:00,57.3,55.9,30.17,WSW,252,0.0,0.0,95,0.02,,---,0.07,VWS V14.01,2013-11-22 21:29:00,
2013-11-22 16:30:00,57.3,55.9,30.17,WSW,252,0.0,0.0,95,0.01,,---,0.07,VWS V14.01,2013-11-22 21:30:00,
2013-11-22 16:31:00,57.3,55.9,30.17,WSW,252,0.0,0.0,95,0.01,,---,0.07,VWS V14.01,2013-11-22 21:31:00,
2013-11-22 16:32:00,57.3,55.9,30.16,WSW,252,0.0,0.0,95,0.01,,---,0.07,VWS V14.01,2013-11-22 21:32:00,
2013-11-22 16:34:00,57.3,55.9,30.17,WSW,252,0.0,0.0,95,0.01,,---,0.07,VWS V14.01,2013-11-22 21:34:00,
2013-11-22 16:35:00,57.3,55.9,30.17,WSW,252,0.0,0.0,95,0.01,,---,0.07,VWS V14.01,2013-11-22 21:35:00,
2013-11-22 16:36:00,57.3,55.9,30.17,WSW,252,0.0,0.0,95,0.01,,---,0.07,VWS V14.01,2013-11-22 21:36:00,
2013-11-22 16:37:00,57.2,55.8,30.17,WSW,252,0.0,0.0,95,0.01,,---,0.07,VWS V14.01,2013-11-22 21:37:00,
2013-11-22 16:39:00,57.3,55.9,30.17,WSW,252,0.0,0.0,95,0.01,,---,0.07,VWS V14.01,2013-11-22 21:39:00,
2013-11-22 16:40:00,57.2,55.8,30.17,WSW,252,0.0,0.0,95,0.00,,---,0.07,VWS V14.01,2013-11-22 21:40:00,
2013-11-22 16:42:00,57.3,55.9,30.16,WSW,252,0.0,0.0,95,0.00,,---,0.07,VWS V14.01,2013-11-22 21:42:00,
2013-11-22 16:43:00,57.2,55.8,30.17,WSW,252,0.0,0.0,95,0.00,,---,0.07,VWS V14.01,2013-11-22 21:43:00,
2013-11-22 16:44:00,57.2,55.8,30.16,WSW,252,0.0,0.0,95,0.00,,---,0.07,VWS V14.01,2013-11-22 21:44:00,
2013-11-22 16:45:00,57.2,55.8,30.17,WSW,252,0.0,0.0,95,0.00,,---,0.07,VWS V14.01,2013-11-22 21:45:00,
2013-11-22 16:48:00,57.2,55.8,30.16,WSW,252,0.0,0.0,95,0.00,,---,0.07,VWS V14.01,2013-11-22 21:48:00,
2013-11-22 16:49:00,57.2,55.8,30.16,WSW,252,0.0,0.0,95,0.00,,---,0.07,VWS V14.01,2013-11-22 21:49:00,
2013-11-22 16:50:00,57.2,55.8,30.16,WSW,252,0.0,0.0,95,0.00,,---,0.07,VWS V14.01,2013-11-22 21:50:00,
2013-11-22 16:53:00,57.2,55.8,30.16,WSW,252,0.0,0.0,95,0.00,,---,0.07,VWS V14.01,2013-11-22 21:53:00,
2013-11-22 16:54:00,57.2,55.8,30.16,WSW,252,0.0,0.0,95,0.00,,---,0.07,VWS V14.01,2013-11-22 21:54:00,
2013-11-22 16:55:00,57.1,55.7,30.16,WSW,252,0.0,0.0,95,0.00,,---,0.07,VWS V14.01,2013-11-22 21:55:00,
2013-11-22 16:58:00,57.1,55.7,30.16,WSW,252,0.0,0.0,95,0.00,,---,0.07,VWS V14.01,2013-11-22 21:58:00,
2013-11-22 16:59:00,57.1,55.7,30.16,WSW,252,0.0,0.0,95,0.01,,---,0.08,VWS V14.01,2013-11-22 21:59:00,
2013-11-22 17:00:00,57.1,55.7,30.16,WSW,252,0.0,0.0,95,0.01,,---,0.08,VWS V14.01,2013-11-22 22:00:00,
2013-11-22 17:03:00,57.1,55.7,30.16,WSW,252,0.0,0.0,95,0.01,,---,0.08,VWS V14.01,2013-11-22 22:03:00,
2013-11-22 17:04:00,57.1,55.7,30.16,WSW,252,0.0,0.0,95,0.01,,---,0.08,VWS V14.01,2013-11-22 22:04:00,
2013-11-22 17:05:00,57.1,55.7,30.16,WSW,252,0.0,0.0,95,0.01,,---,0.08,VWS V14.01,2013-11-22 22:05:00,
2013-11-22 17:06:00,57.1,55.7,30.16,WSW,252,0.0,0.0,95,0.01,,---,0.08,VWS V14.01,2013-11-22 22:06:00,
2013-11-22 17:08:00,57.1,55.7,30.17,WSW,252,0.0,0.0,95,0.01,,---,0.08,VWS V14.01,2013-11-22 22:08:00,
2013-11-22 17:09:00,57.1,55.7,30.17,WSW,252,0.0,0.0,95,0.01,,---,0.08,VWS V14.01,2013-11-22 22:09:00,
2013-11-22 17:10:00,57.1,55.7,30.17,WSW,252,0.0,0.0,95,0.01,,---,0.08,VWS V14.01,2013-11-22 22:10:00,
2013-11-22 17:12:00,57.0,55.6,30.16,WSW,252,0.0,0.0,95,0.01,,---,0.08,VWS V14.01,2013-11-22 22:12:00,
2013-11-22 17:13:00,57.1,55.7,30.17,WSW,252,0.0,0.0,95,0.01,,---,0.08,VWS V14.01,2013-11-22 22:13:00,
2013-11-22 17:14:00,57.0,55.6,30.17,WSW,252,0.0,0.0,95,0.01,,---,0.08,VWS V14.01,2013-11-22 22:14:00,
2013-11-22 17:15:00,57.0,55.6,30.17,WSW,252,0.0,0.0,95,0.01,,---,0.08,VWS V14.01,2013-11-22 22:15:00,
2013-11-22 17:16:00,57.0,55.6,30.17,WSW,252,0.0,0.0,95,0.01,,---,0.08,VWS V14.01,2013-11-22 22:16:00,
2013-11-22 17:17:00,57.0,55.6,30.16,WSW,252,0.0,0.0,95,0.01,,---,0.08,VWS V14.01,2013-11-22 22:17:00,
2013-11-22 17:19:00,57.0,55.6,30.17,WSW,252,0.0,0.0,95,0.01,,---,0.08,VWS V14.01,2013-11-22 22:19:00,
2013-11-22 17:20:00,57.0,55.6,30.17,WSW,252,0.0,0.0,95,0.01,,---,0.08,VWS V14.01,2013-11-22 22:20:00,
2013-11-22 17:21:00,57.0,55.6,30.16,WSW,252,0.0,0.0,95,0.01,,---,0.08,VWS V14.01,2013-11-22 22:21:00,
2013-11-22 17:22:00,56.9,55.5,30.16,WSW,252,0.0,1.0,95,0.01,,---,0.08,VWS V14.01,2013-11-22 22:22:00,
2013-11-22 17:24:00,56.9,55.5,30.16,WSW,252,0.0,1.0,95,0.01,,---,0.08,VWS V14.01,2013-11-22 22:24:00,
2013-11-22 17:25:00,56.9,55.5,30.17,WSW,252,0.0,0.0,95,0.01,,---,0.08,VWS V14.01,2013-11-22 22:25:00,
2013-11-22 17:26:00,56.9,55.5,30.16,WSW,252,0.0,0.0,95,0.01,,---,0.08,VWS V14.01,2013-11-22 22:26:00,
2013-11-22 17:27:00,56.9,55.5,30.16,WSW,252,0.0,0.0,95,0.01,,---,0.08,VWS V14.01,2013-11-22 22:27:00,
2013-11-22 17:29:00,56.9,55.5,30.17,WSW,252,0.0,1.0,95,0.01,,---,0.08,VWS V14.01,2013-11-22 22:29:00,
2013-11-22 17:30:00,56.9,55.5,30.17,WSW,252,0.0,2.0,95,0.01,,---,0.08,VWS V14.01,2013-11-22 22:30:00,
2013-11-22 17:31:00,56.9,55.5,30.17,WSW,252,0.0,2.0,95,0.01,,---,0.08,VWS V14.01,2013-11-22 22:31:00,
2013-11-22 17:32:00,56.8,55.4,30.17,WSW,252,0.0,2.0,95,0.01,,---,0.08,VWS V14.01,2013-11-22 22:32:00,
2013-11-22 17:34:00,56.8,55.4,30.17,WSW,252,0.0,2.0,95,0.01,,---,0.08,VWS V14.01,2013-11-22 22:34:00,
2013-11-22 17:35:00,56.8,55.4,30.17,WSW,252,0.0,1.0,95,0.01,,---,0.08,VWS V14.01,2013-11-22 22:35:00,
2013-11-22 17:36:00,56.8,55.4,30.16,WSW,252,0.0,1.0,95,0.01,,---,0.08,VWS V14.01,2013-11-22 22:36:00,
2013-11-22 17:38:00,56.8,55.4,30.16,WSW,252,1.0,2.0,95,0.01,,---,0.08,VWS V14.01,2013-11-22 22:38:00,
2013-11-22 17:39:00,56.8,55.4,30.17,WSW,252,0.0,2.0,95,0.01,,---,0.08,VWS V14.01,2013-11-22 22:39:00,
2013-11-22 17:40:00,56.8,55.4,30.17,WSW,252,0.0,0.0,95,0.01,,---,0.08,VWS V14.01,2013-11-22 22:40:00,
2013-11-22 17:41:00,56.8,55.4,30.17,WSW,252,0.0,0.0,95,0.01,,---,0.08,VWS V14.01,2013-11-22 22:41:00,
2013-11-22 17:43:00,56.8,55.4,30.17,WSW,252,0.0,0.0,95,0.01,,---,0.08,VWS V14.01,2013-11-22 22:43:00,
2013-11-22 17:44:00,56.8,55.7,30.17,WSW,252,0.0,0.0,96,0.01,,---,0.08,VWS V14.01,2013-11-22 22:44:00,
2013-11-22 17:45:00,56.8,55.7,30.17,WSW,252,0.0,0.0,96,0.01,,---,0.08,VWS V14.01,2013-11-22 22:45:00,
2013-11-22 17:46:00,56.7,55.6,30.17,WSW,252,0.0,0.0,96,0.01,,---,0.08,VWS V14.01,2013-11-22 22:46:00,
2013-11-22 17:49:00,56.7,55.6,30.17,WSW,252,0.0,0.0,96,0.01,,---,0.08,VWS V14.01,2013-11-22 22:49:00,
2013-11-22 17:50:00,56.7,55.6,30.17,WSW,252,0.0,0.0,96,0.01,,---,0.08,VWS V14.01,2013-11-22 22:50:00,
2013-11-22 17:51:00,56.7,55.6,30.17,WSW,252,0.0,0.0,96,0.01,,---,0.08,VWS V14.01,2013-11-22 22:51:00,
2013-11-22 17:54:00,56.7,55.6,30.16,WSW,252,0.0,0.0,96,0.01,,---,0.08,VWS V14.01,2013-11-22 22:54:00,
2013-11-22 17:55:00,56.7,55.6,30.16,WSW,252,0.0,0.0,96,0.01,,---,0.08,VWS V14.01,2013-11-22 22:55:00,
2013-11-22 17:56:00,56.7,55.6,30.16,WSW,252,0.0,0.0,96,0.01,,---,0.08,VWS V14.01,2013-11-22 22:56:00,
2013-11-22 17:57:00,56.6,55.5,30.17,WSW,252,0.0,0.0,96,0.01,,---,0.08,VWS V14.01,2013-11-22 22:57:00,
2013-11-22 17:59:00,56.6,55.5,30.17,WSW,252,1.0,1.0,96,0.01,,---,0.08,VWS V14.01,2013-11-22 22:59:00,
2013-11-22 18:00:00,56.6,55.5,30.17,WSW,252,0.0,0.0,96,0.00,,---,0.08,VWS V14.01,2013-11-22 23:00:00,
2013-11-22 18:01:00,56.6,55.5,30.17,WSW,252,0.0,0.0,96,0.00,,---,0.08,VWS V14.01,2013-11-22 23:01:00,
2013-11-22 18:02:00,56.6,55.5,30.17,WSW,252,0.0,0.0,96,0.00,,---,0.08,VWS V14.01,2013-11-22 23:02:00,
2013-11-22 18:04:00,56.6,55.5,30.17,WSW,252,0.0,0.0,96,0.00,,---,0.08,VWS V14.01,2013-11-22 23:04:00,
2013-11-22 18:06:00,56.6,55.5,30.17,WSW,252,0.0,0.0,96,0.00,,---,0.08,VWS V14.01,2013-11-22 23:06:00,
2013-11-22 18:07:00,56.6,55.5,30.17,WSW,252,0.0,0.0,96,0.00,,---,0.08,VWS V14.01,2013-11-22 23:07:00,
2013-11-22 18:08:00,56.6,55.5,30.17,WSW,252,0.0,0.0,96,0.00,,---,0.08,VWS V14.01,2013-11-22 23:08:00,
2013-11-22 18:09:00,56.6,55.5,30.17,WSW,252,0.0,0.0,96,0.00,,---,0.08,VWS V14.01,2013-11-22 23:09:00,
2013-11-22 18:10:00,56.6,55.5,30.17,WSW,252,0.0,0.0,96,0.00,,---,0.08,VWS V14.01,2013-11-22 23:10:00,
2013-11-22 18:11:00,56.6,55.5,30.17,WSW,252,0.0,0.0,96,0.00,,---,0.08,VWS V14.01,2013-11-22 23:11:00,
2013-11-22 18:12:00,56.5,55.4,30.17,WSW,252,0.0,0.0,96,0.00,,---,0.08,VWS V14.01,2013-11-22 23:12:00,
2013-11-22 18:14:00,56.5,55.4,30.17,WSW,252,0.0,0.0,96,0.00,,---,0.08,VWS V14.01,2013-11-22 23:14:00,
2013-11-22 18:15:00,56.5,55.4,30.17,WSW,252,0.0,0.0,96,0.00,,---,0.08,VWS V14.01,2013-11-22 23:15:00,
2013-11-22 18:16:00,56.5,55.4,30.17,WSW,252,0.0,0.0,96,0.00,,---,0.08,VWS V14.01,2013-11-22 23:16:00,
2013-11-22 18:17:00,56.5,55.4,30.17,WSW,252,0.0,0.0,96,0.00,,---,0.08,VWS V14.01,2013-11-22 23:17:00,
2013-11-22 18:19:00,56.5,55.4,30.17,WSW,252,0.0,0.0,96,0.00,,---,0.08,VWS V14.01,2013-11-22 23:19:00,
2013-11-22 18:20:00,56.5,55.4,30.17,WSW,252,0.0,0.0,96,0.00,,---,0.08,VWS V14.01,2013-11-22 23:20:00,
2013-11-22 18:21:00,56.4,55.3,30.17,WSW,252,0.0,0.0,96,0.00,,---,0.08,VWS V14.01,2013-11-22 23:21:00,
2013-11-22 18:22:00,56.5,55.4,30.17,WSW,252,0.0,0.0,96,0.00,,---,0.08,VWS V14.01,2013-11-22 23:22:00,
2013-11-22 18:23:00,56.5,55.4,30.17,WSW,252,0.0,0.0,96,0.00,,---,0.08,VWS V14.01,2013-11-22 23:23:00,
2013-11-22 18:24:00,56.4,55.3,30.17,WSW,252,0.0,0.0,96,0.00,,---,0.08,VWS V14.01,2013-11-22 23:24:00,
2013-11-22 18:25:00,56.4,55.3,30.17,WSW,252,0.0,0.0,96,0.00,,---,0.08,VWS V14.01,2013-11-22 23:25:00,
2013-11-22 18:27:00,56.4,55.3,30.17,WSW,252,0.0,0.0,96,0.00,,---,0.08,VWS V14.01,2013-11-22 23:27:00,
2013-11-22 18:28:00,56.4,55.3,30.17,WSW,252,0.0,0.0,96,0.00,,---,0.08,VWS V14.01,2013-11-22 23:28:00,
2013-11-22 18:29:00,56.4,55.3,30.17,WSW,252,0.0,0.0,96,0.00,,---,0.08,VWS V14.01,2013-11-22 23:29:00,
2013-11-22 18:30:00,56.4,55.3,30.17,WSW,252,0.0,0.0,96,0.00,,---,0.08,VWS V14.01,2013-11-22 23:30:00,
2013-11-22 18:32:00,56.4,55.3,30.17,WSW,252,0.0,0.0,96,0.00,,---,0.08,VWS V14.01,2013-11-22 23:32:00,
2013-11-22 18:33:00,56.4,55.3,30.17,WSW,252,0.0,0.0,96,0.00,,---,0.08,VWS V14.01,2013-11-22 23:33:00,
2013-11-22 18:34:00,56.4,55.3,30.17,WSW,252,0.0,0.0,96,0.00,,---,0.08,VWS V14.01,2013-11-22 23:34:00,
2013-11-22 18:35:00,56.4,55.3,30.17,WSW,252,0.0,0.0,96,0.00,,---,0.08,VWS V14.01,2013-11-22 23:35:00,
2013-11-22 18:37:00,56.4,55.3,30.17,WSW,252,0.0,0.0,96,0.00,,---,0.08,VWS V14.01,2013-11-22 23:37:00,
2013-11-22 18:39:00,56.4,55.3,30.17,WSW,252,0.0,0.0,96,0.00,,---,0.08,VWS V14.01,2013-11-22 23:39:00,
2013-11-22 18:40:00,56.4,55.3,30.17,WSW,252,0.0,0.0,96,0.00,,---,0.08,VWS V14.01,2013-11-22 23:40:00,
2013-11-22 18:41:00,56.3,55.2,30.17,WSW,252,0.0,0.0,96,0.00,,---,0.08,VWS V14.01,2013-11-22 23:41:00,
2013-11-22 18:42:00,56.3,55.2,30.18,WSW,252,0.0,0.0,96,0.00,,---,0.08,VWS V14.01,2013-11-22 23:42:00,
2013-11-22 18:44:00,56.3,55.2,30.17,WSW,252,0.0,0.0,96,0.00,,---,0.08,VWS V14.01,2013-11-22 23:44:00,
2013-11-22 18:45:00,56.3,55.2,30.17,WSW,252,0.0,0.0,96,0.00,,---,0.08,VWS V14.01,2013-11-22 23:45:00,
2013-11-22 18:46:00,56.3,55.2,30.17,WSW,252,0.0,0.0,96,0.00,,---,0.08,VWS V14.01,2013-11-22 23:46:00,
2013-11-22 18:47:00,56.3,55.2,30.17,WSW,252,0.0,0.0,96,0.00,,---,0.08,VWS V14.01,2013-11-22 23:47:00,
2013-11-22 18:49:00,56.3,55.2,30.17,WSW,252,0.0,0.0,96,0.00,,---,0.08,VWS V14.01,2013-11-22 23:49:00,
2013-11-22 18:50:00,56.3,55.2,30.17,WSW,252,0.0,0.0,96,0.00,,---,0.08,VWS V14.01,2013-11-22 23:50:00,
2013-11-22 18:51:00,56.3,55.2,30.17,WSW,252,0.0,0.0,96,0.00,,---,0.08,VWS V14.01,2013-11-22 23:51:00,
2013-11-22 18:52:00,56.3,55.2,30.17,WSW,252,0.0,0.0,96,0.00,,---,0.08,VWS V14.01,2013-11-22 23:52:00,
2013-11-22 18:53:00,56.3,55.2,30.17,WSW,252,0.0,0.0,96,0.00,,---,0.08,VWS V14.01,2013-11-22 23:53:00,
2013-11-22 18:55:00,56.3,55.2,30.17,WSW,252,0.0,0.0,96,0.00,,---,0.08,VWS V14.01,2013-11-22 23:55:00,
2013-11-22 18:56:00,56.3,55.2,30.17,WSW,252,0.0,0.0,96,0.00,,---,0.08,VWS V14.01,2013-11-22 23:56:00,
2013-11-22 18:57:00,56.3,55.2,30.17,WSW,252,0.0,0.0,96,0.00,,---,0.08,VWS V14.01,2013-11-22 23:57:00,
2013-11-22 18:58:00,56.2,55.1,30.17,WSW,252,0.0,0.0,96,0.00,,---,0.08,VWS V14.01,2013-11-22 23:58:00,
2013-11-22 19:00:00,56.2,55.1,30.17,WSW,252,0.0,0.0,96,0.00,,---,0.08,VWS V14.01,2013-11-23 00:00:00,
2013-11-22 19:01:00,56.2,55.1,30.17,WSW,252,0.0,0.0,96,0.00,,---,0.08,VWS V14.01,2013-11-23 00:01:00,
2013-11-22 19:02:00,56.2,55.1,30.17,WSW,252,0.0,0.0,96,0.00,,---,0.08,VWS V14.01,2013-11-23 00:02:00,
2013-11-22 19:03:00,56.2,55.1,30.17,WSW,252,0.0,0.0,96,0.00,,---,0.08,VWS V14.01,2013-11-23 00:03:00,
2013-11-22 19:05:00,56.2,55.1,30.17,WSW,252,0.0,0.0,96,0.00,,---,0.08,VWS V14.01,2013-11-23 00:05:00,
2013-11-22 19:07:00,56.2,55.1,30.17,WSW,252,0.0,0.0,96,0.00,,---,0.08,VWS V14.01,2013-11-23 00:07:00,
2013-11-22 19:08:00,56.2,55.1,30.17,WSW,252,0.0,0.0,96,0.00,,---,0.08,VWS V14.01,2013-11-23 00:08:00,
2013-11-22 19:10:00,56.2,55.1,30.17,WSW,252,0.0,0.0,96,0.00,,---,0.08,VWS V14.01,2013-11-23 00:10:00,
2013-11-22 19:11:00,56.2,55.1,30.17,WSW,252,0.0,0.0,96,0.00,,---,0.08,VWS V14.01,2013-11-23 00:11:00,
2013-11-22 19:12:00,56.2,55.1,30.17,WSW,252,0.0,0.0,96,0.00,,---,0.08,VWS V14.01,2013-11-23 00:12:00,
2013-11-22 19:13:00,56.2,55.1,30.17,WSW,252,0.0,0.0,96,0.00,,---,0.08,VWS V14.01,2013-11-23 00:13:00,
2013-11-22 19:15:00,56.2,55.1,30.17,WSW,252,0.0,0.0,96,0.00,,---,0.08,VWS V14.01,2013-11-23 00:15:00,
2013-11-22 19:16:00,56.2,55.1,30.17,WSW,252,0.0,0.0,96,0.00,,---,0.08,VWS V14.01,2013-11-23 00:16:00,
2013-11-22 19:17:00,56.2,55.1,30.17,WSW,252,0.0,0.0,96,0.00,,---,0.08,VWS V14.01,2013-11-23 00:17:00,
2013-11-22 19:18:00,56.2,55.1,30.17,WSW,252,0.0,0.0,96,0.00,,---,0.08,VWS V14.01,2013-11-23 00:18:00,
2013-11-22 19:20:00,56.2,55.1,30.17,WSW,252,0.0,0.0,96,0.00,,---,0.08,VWS V14.01,2013-11-23 00:20:00,
2013-11-22 19:22:00,56.1,55.0,30.17,WSW,252,0.0,0.0,96,0.00,,---,0.08,VWS V14.01,2013-11-23 00:22:00,
2013-11-22 19:23:00,56.1,55.0,30.17,WSW,252,0.0,0.0,96,0.00,,---,0.08,VWS V14.01,2013-11-23 00:23:00,
2013-11-22 19:24:00,56.1,55.0,30.17,WSW,252,0.0,0.0,96,0.00,,---,0.08,VWS V14.01,2013-11-23 00:24:00,
2013-11-22 19:25:00,56.1,55.0,30.17,WSW,252,0.0,0.0,96,0.00,,---,0.08,VWS V14.01,2013-11-23 00:25:00,
2013-11-22 19:27:00,56.1,55.0,30.17,WSW,252,0.0,0.0,96,0.00,,---,0.08,VWS V14.01,2013-11-23 00:27:00,
2013-11-22 19:28:00,56.1,55.0,30.17,WSW,252,0.0,0.0,96,0.00,,---,0.08,VWS V14.01,2013-11-23 00:28:00,
2013-11-22 19:29:00,56.1,55.0,30.17,WSW,252,0.0,0.0,96,0.00,,---,0.08,VWS V14.01,2013-11-23 00:29:00,
2013-11-22 19:30:00,56.1,55.0,30.17,WSW,252,0.0,0.0,96,0.00,,---,0.08,VWS V14.01,2013-11-23 00:30:00,
2013-11-22 19:32:00,56.1,55.0,30.17,WSW,252,0.0,0.0,96,0.00,,---,0.08,VWS V14.01,2013-11-23 00:32:00,
2013-11-22 19:33:00,56.0,54.9,30.17,WSW,252,0.0,0.0,96,0.00,,---,0.08,VWS V14.01,2013-11-23 00:33:00,
2013-11-22 19:34:00,56.1,55.0,30.17,WSW,252,0.0,0.0,96,0.00,,---,0.08,VWS V14.01,2013-11-23 00:34:00,
2013-11-22 19:36:00,56.1,55.0,30.17,WSW,252,0.0,0.0,96,0.00,,---,0.08,VWS V14.01,2013-11-23 00:36:00,
2013-11-22 19:37:00,56.1,55.0,30.17,WSW,252,0.0,0.0,96,0.00,,---,0.08,VWS V14.01,2013-11-23 00:37:00,
2013-11-22 19:38:00,56.0,54.9,30.17,WSW,252,0.0,0.0,96,0.00,,---,0.08,VWS V14.01,2013-11-23 00:38:00,
2013-11-22 19:39:00,56.1,55.0,30.17,WSW,252,0.0,0.0,96,0.00,,---,0.08,VWS V14.01,2013-11-23 00:39:00,
2013-11-22 19:41:00,56.0,54.9,30.17,WSW,252,0.0,0.0,96,0.00,,---,0.08,VWS V14.01,2013-11-23 00:41:00,
2013-11-22 19:42:00,56.0,54.9,30.17,WSW,252,0.0,0.0,96,0.00,,---,0.08,VWS V14.01,2013-11-23 00:42:00,
2013-11-22 19:43:00,56.0,54.9,30.17,WSW,252,0.0,0.0,96,0.00,,---,0.08,VWS V14.01,2013-11-23 00:43:00,
2013-11-22 19:44:00,56.0,54.9,30.17,WSW,252,0.0,0.0,96,0.00,,---,0.08,VWS V14.01,2013-11-23 00:44:00,
2013-11-22 19:45:00,56.0,54.9,30.17,WSW,252,0.0,0.0,96,0.00,,---,0.08,VWS V14.01,2013-11-23 00:45:00,
2013-11-22 19:46:00,56.0,54.9,30.17,WSW,252,0.0,0.0,96,0.00,,---,0.08,VWS V14.01,2013-11-23 00:46:00,
2013-11-22 19:47:00,56.0,54.9,30.17,WSW,252,0.0,0.0,96,0.00,,---,0.08,VWS V14.01,2013-11-23 00:47:00,
2013-11-22 19:48:00,56.0,54.9,30.17,WSW,252,0.0,0.0,96,0.00,,---,0.08,VWS V14.01,2013-11-23 00:48:00,
2013-11-22 19:49:00,56.0,54.9,30.17,WSW,252,0.0,0.0,96,0.00,,---,0.08,VWS V14.01,2013-11-23 00:49:00,
2013-11-22 19:50:00,56.0,54.9,30.17,WSW,252,0.0,0.0,96,0.00,,---,0.08,VWS V14.01,2013-11-23 00:50:00,
2013-11-22 19:51:00,56.0,54.9,30.17,WSW,252,0.0,0.0,96,0.00,,---,0.08,VWS V14.01,2013-11-23 00:51:00,
2013-11-22 19:53:00,56.0,54.9,30.17,WSW,252,0.0,0.0,96,0.00,,---,0.08,VWS V14.01,2013-11-23 00:53:00,
2013-11-22 19:54:00,56.0,54.9,30.17,WSW,252,0.0,0.0,96,0.00,,---,0.08,VWS V14.01,2013-11-23 00:54:00,
2013-11-22 19:55:00,56.0,54.9,30.17,WSW,252,0.0,0.0,96,0.00,,---,0.08,VWS V14.01,2013-11-23 00:55:00,
2013-11-22 19:56:00,56.0,54.9,30.17,WSW,252,0.0,0.0,96,0.00,,---,0.08,VWS V14.01,2013-11-23 00:56:00,
2013-11-22 19:58:00,56.0,54.9,30.17,WSW,252,0.0,0.0,96,0.00,,---,0.08,VWS V14.01,2013-11-23 00:58:00,
2013-11-22 19:59:00,55.9,54.8,30.17,WSW,252,0.0,0.0,96,0.00,,---,0.08,VWS V14.01,2013-11-23 00:59:00,
2013-11-22 20:01:00,56.0,54.9,30.17,WSW,252,0.0,0.0,96,0.00,,---,0.08,VWS V14.01,2013-11-23 01:01:00,
2013-11-22 20:03:00,55.9,54.8,30.17,WSW,252,0.0,0.0,96,0.00,,---,0.08,VWS V14.01,2013-11-23 01:03:00,
2013-11-22 20:04:00,56.0,54.9,30.17,WSW,252,0.0,0.0,96,0.00,,---,0.08,VWS V14.01,2013-11-23 01:04:00,
2013-11-22 20:05:00,55.9,54.8,30.17,WSW,252,0.0,0.0,96,0.00,,---,0.08,VWS V14.01,2013-11-23 01:05:00,
2013-11-22 20:06:00,55.9,54.8,30.17,WSW,252,0.0,0.0,96,0.00,,---,0.08,VWS V14.01,2013-11-23 01:06:00,
2013-11-22 20:08:00,55.9,54.8,30.17,WSW,252,0.0,0.0,96,0.00,,---,0.08,VWS V14.01,2013-11-23 01:08:00,
2013-11-22 20:09:00,55.9,54.8,30.17,WSW,252,0.0,0.0,96,0.00,,---,0.08,VWS V14.01,2013-11-23 01:09:00,
2013-11-22 20:10:00,55.9,54.8,30.17,WSW,252,0.0,0.0,96,0.00,,---,0.08,VWS V14.01,2013-11-23 01:10:00,
2013-11-22 20:11:00,55.9,54.8,30.17,WSW,252,0.0,0.0,96,0.00,,---,0.08,VWS V14.01,2013-11-23 01:11:00,
2013-11-22 20:12:00,55.9,54.8,30.17,WSW,252,0.0,0.0,96,0.00,,---,0.08,VWS V14.01,2013-11-23 01:12:00,
2013-11-22 20:13:00,55.9,54.8,30.17,WSW,252,0.0,0.0,96,0.00,,---,0.08,VWS V14.01,2013-11-23 01:13:00,
2013-11-22 20:14:00,55.9,54.8,30.17,WSW,252,0.0,0.0,96,0.00,,---,0.08,VWS V14.01,2013-11-23 01:14:00,
2013-11-22 20:15:00,55.9,54.8,30.17,WSW,252,0.0,0.0,96,0.00,,---,0.08,VWS V14.01,2013-11-23 01:15:00,
2013-11-22 20:16:00,55.9,54.8,30.17,WSW,252,0.0,0.0,96,0.00,,---,0.08,VWS V14.01,2013-11-23 01:16:00,
2013-11-22 20:17:00,55.9,54.8,30.17,WSW,252,0.0,0.0,96,0.00,,---,0.08,VWS V14.01,2013-11-23 01:17:00,
2013-11-22 20:18:00,55.9,54.8,30.17,WSW,252,0.0,0.0,96,0.00,,---,0.08,VWS V14.01,2013-11-23 01:18:00,
2013-11-22 20:19:00,55.9,54.8,30.17,WSW,252,0.0,0.0,96,0.00,,---,0.08,VWS V14.01,2013-11-23 01:19:00,
2013-11-22 20:20:00,55.9,54.8,30.17,WSW,252,0.0,0.0,96,0.00,,---,0.08,VWS V14.01,2013-11-23 01:20:00,
2013-11-22 20:21:00,55.9,54.8,30.17,WSW,252,0.0,0.0,96,0.00,,---,0.08,VWS V14.01,2013-11-23 01:21:00,
2013-11-22 20:22:00,55.9,54.8,30.17,WSW,252,0.0,0.0,96,0.00,,---,0.08,VWS V14.01,2013-11-23 01:22:00,
2013-11-22 20:23:00,55.9,54.8,30.17,WSW,252,0.0,0.0,96,0.00,,---,0.08,VWS V14.01,2013-11-23 01:23:00,
2013-11-22 20:24:00,55.9,54.8,30.17,WSW,252,0.0,0.0,96,0.00,,---,0.08,VWS V14.01,2013-11-23 01:24:00,
2013-11-22 20:25:00,55.9,54.8,30.17,WSW,252,0.0,0.0,96,0.00,,---,0.08,VWS V14.01,2013-11-23 01:25:00,
2013-11-22 20:26:00,55.9,54.8,30.17,WSW,252,0.0,0.0,96,0.00,,---,0.08,VWS V14.01,2013-11-23 01:26:00,
2013-11-22 20:28:00,55.9,54.8,30.17,WSW,252,0.0,0.0,96,0.00,,---,0.08,VWS V14.01,2013-11-23 01:28:00,
2013-11-22 20:30:00,55.9,54.8,30.17,WSW,252,0.0,0.0,96,0.00,,---,0.08,VWS V14.01,2013-11-23 01:30:00,
2013-11-22 20:31:00,55.9,54.8,30.17,WSW,252,0.0,0.0,96,0.00,,---,0.08,VWS V14.01,2013-11-23 01:31:00,
2013-11-22 20:33:00,55.9,54.8,30.17,WSW,252,0.0,0.0,96,0.00,,---,0.08,VWS V14.01,2013-11-23 01:33:00,
2013-11-22 20:35:00,55.9,54.8,30.17,WSW,252,0.0,0.0,96,0.00,,---,0.08,VWS V14.01,2013-11-23 01:35:00,
2013-11-22 20:36:00,55.8,54.7,30.17,WSW,252,0.0,0.0,96,0.00,,---,0.08,VWS V14.01,2013-11-23 01:36:00,
2013-11-22 20:38:00,55.9,54.8,30.17,WSW,252,0.0,0.0,96,0.00,,---,0.08,VWS V14.01,2013-11-23 01:38:00,
2013-11-22 20:40:00,55.9,54.8,30.17,WSW,252,0.0,0.0,96,0.00,,---,0.08,VWS V14.01,2013-11-23 01:40:00,
2013-11-22 20:41:00,55.8,54.7,30.17,WSW,252,0.0,0.0,96,0.00,,---,0.08,VWS V14.01,2013-11-23 01:41:00,
2013-11-22 20:42:00,55.9,54.8,30.17,WSW,252,0.0,0.0,96,0.00,,---,0.08,VWS V14.01,2013-11-23 01:42:00,
2013-11-22 20:43:00,55.9,54.8,30.17,WSW,252,0.0,0.0,96,0.00,,---,0.08,VWS V14.01,2013-11-23 01:43:00,
2013-11-22 20:45:00,55.9,54.8,30.17,WSW,252,0.0,0.0,96,0.00,,---,0.08,VWS V14.01,2013-11-23 01:45:00,
2013-11-22 20:46:00,55.8,54.7,30.17,WSW,252,0.0,0.0,96,0.00,,---,0.08,VWS V14.01,2013-11-23 01:46:00,
2013-11-22 20:47:00,55.8,54.7,30.17,WSW,252,0.0,0.0,96,0.00,,---,0.08,VWS V14.01,2013-11-23 01:47:00,
2013-11-22 20:48:00,55.8,54.7,30.17,WSW,252,0.0,0.0,96,0.00,,---,0.08,VWS V14.01,2013-11-23 01:48:00,
2013-11-22 20:50:00,55.9,54.8,30.17,WSW,252,0.0,0.0,96,0.00,,---,0.08,VWS V14.01,2013-11-23 01:50:00,
2013-11-22 20:51:00,55.8,54.7,30.17,WSW,252,0.0,0.0,96,0.00,,---,0.08,VWS V14.01,2013-11-23 01:51:00,
2013-11-22 20:52:00,55.9,54.8,30.17,WSW,252,0.0,0.0,96,0.00,,---,0.08,VWS V14.01,2013-11-23 01:52:00,
2013-11-22 20:53:00,55.8,54.7,30.17,WSW,252,0.0,0.0,96,0.00,,---,0.08,VWS V14.01,2013-11-23 01:53:00,
2013-11-22 20:55:00,55.8,54.7,30.17,WSW,252,0.0,0.0,96,0.00,,---,0.08,VWS V14.01,2013-11-23 01:55:00,
2013-11-22 20:56:00,55.8,54.7,30.17,WSW,252,0.0,0.0,96,0.00,,---,0.08,VWS V14.01,2013-11-23 01:56:00,
2013-11-22 20:57:00,55.8,54.7,30.17,WSW,252,0.0,0.0,96,0.00,,---,0.08,VWS V14.01,2013-11-23 01:57:00,
2013-11-22 20:58:00,55.8,54.7,30.17,WSW,252,0.0,0.0,96,0.00,,---,0.08,VWS V14.01,2013-11-23 01:58:00,
2013-11-22 21:00:00,55.8,54.7,30.18,WSW,252,0.0,0.0,96,0.00,,---,0.08,VWS V14.01,2013-11-23 02:00:00,
2013-11-22 21:01:00,55.8,54.7,30.18,WSW,252,0.0,0.0,96,0.00,,---,0.08,VWS V14.01,2013-11-23 02:01:00,
2013-11-22 21:02:00,55.8,54.7,30.17,WSW,252,0.0,0.0,96,0.00,,---,0.08,VWS V14.01,2013-11-23 02:02:00,
2013-11-22 21:03:00,55.8,54.7,30.18,WSW,252,0.0,0.0,96,0.00,,---,0.08,VWS V14.01,2013-11-23 02:03:00,
2013-11-22 21:05:00,55.8,54.7,30.18,WSW,252,0.0,0.0,96,0.00,,---,0.08,VWS V14.01,2013-11-23 02:05:00,
2013-11-22 21:06:00,55.8,54.7,30.18,WSW,252,0.0,0.0,96,0.00,,---,0.08,VWS V14.01,2013-11-23 02:06:00,
2013-11-22 21:07:00,55.8,54.7,30.18,WSW,252,0.0,0.0,96,0.00,,---,0.08,VWS V14.01,2013-11-23 02:07:00,
2013-11-22 21:08:00,55.8,54.7,30.18,WSW,252,0.0,0.0,96,0.00,,---,0.08,VWS V14.01,2013-11-23 02:08:00,
2013-11-22 21:09:00,55.8,54.7,30.18,WSW,252,0.0,0.0,96,0.00,,---,0.08,VWS V14.01,2013-11-23 02:09:00,
2013-11-22 21:11:00,55.8,54.7,30.18,WSW,252,0.0,0.0,96,0.00,,---,0.08,VWS V14.01,2013-11-23 02:11:00,
2013-11-22 21:13:00,55.8,54.7,30.18,WSW,252,0.0,0.0,96,0.00,,---,0.08,VWS V14.01,2013-11-23 02:13:00,
2013-11-22 21:14:00,55.8,54.7,30.18,WSW,252,0.0,0.0,96,0.00,,---,0.08,VWS V14.01,2013-11-23 02:14:00,
2013-11-22 21:16:00,55.8,54.7,30.19,WSW,252,0.0,0.0,96,0.00,,---,0.08,VWS V14.01,2013-11-23 02:16:00,
2013-11-22 21:18:00,55.9,54.8,30.19,West,274,1.0,2.0,96,0.00,,---,0.08,VWS V14.01,2013-11-23 02:18:00,
2013-11-22 21:19:00,55.9,54.8,30.19,West,275,1.0,2.0,96,0.00,,---,0.08,VWS V14.01,2013-11-23 02:19:00,
2013-11-22 21:21:00,55.9,54.8,30.19,West,264,0.0,3.0,96,0.00,,---,0.08,VWS V14.01,2013-11-23 02:21:00,
2013-11-22 21:23:00,55.9,54.8,30.19,NE,42,4.0,6.0,96,0.00,,---,0.08,VWS V14.01,2013-11-23 02:23:00,
2013-11-22 21:24:00,55.9,54.8,30.19,WSW,241,4.0,6.0,96,0.00,,---,0.08,VWS V14.01,2013-11-23 02:24:00,
2013-11-22 21:25:00,55.9,54.8,30.19,WSW,255,1.0,1.0,96,0.00,,---,0.08,VWS V14.01,2013-11-23 02:25:00,
2013-11-22 21:26:00,55.9,54.8,30.19,WSW,255,0.0,1.0,96,0.00,,---,0.08,VWS V14.01,2013-11-23 02:26:00,
2013-11-22 21:28:00,55.9,54.8,30.18,NW,325,1.0,5.0,96,0.00,,---,0.08,VWS V14.01,2013-11-23 02:28:00,
2013-11-22 21:29:00,56.0,54.9,30.19,WNW,282,0.0,5.0,96,0.00,,---,0.08,VWS V14.01,2013-11-23 02:29:00,
2013-11-22 21:31:00,56.0,54.9,30.18,SE,137,0.0,2.0,96,0.00,,---,0.08,VWS V14.01,2013-11-23 02:31:00,
2013-11-22 21:32:00,56.0,54.9,30.18,SE,139,0.0,2.0,96,0.00,,---,0.08,VWS V14.01,2013-11-23 02:32:00,
2013-11-22 21:33:00,56.0,54.9,30.18,SE,139,0.0,2.0,96,0.00,,---,0.08,VWS V14.01,2013-11-23 02:33:00,
2013-11-22 21:34:00,55.9,54.8,30.19,NNW,342,1.0,5.0,96,0.00,,---,0.08,VWS V14.01,2013-11-23 02:34:00,
2013-11-22 21:36:00,55.9,54.8,30.19,North,359,0.0,2.0,96,0.00,,---,0.08,VWS V14.01,2013-11-23 02:36:00,
2013-11-22 21:37:00,55.9,54.8,30.18,West,279,1.0,5.0,96,0.00,,---,0.08,VWS V14.01,2013-11-23 02:37:00,
2013-11-22 21:38:00,56.0,54.9,30.19,WSW,245,5.0,5.0,96,0.00,,---,0.08,VWS V14.01,2013-11-23 02:38:00,
2013-11-22 21:39:00,55.9,54.8,30.19,West,279,0.0,5.0,96,0.00,,---,0.08,VWS V14.01,2013-11-23 02:39:00,
2013-11-22 21:41:00,55.9,54.8,30.18,West,279,0.0,0.0,96,0.00,,---,0.08,VWS V14.01,2013-11-23 02:41:00,
2013-11-22 21:42:00,55.9,54.8,30.18,West,275,1.0,6.0,96,0.00,,---,0.08,VWS V14.01,2013-11-23 02:42:00,
2013-11-22 21:43:00,55.9,54.8,30.18,West,280,1.0,6.0,96,0.00,,---,0.08,VWS V14.01,2013-11-23 02:43:00,
2013-11-22 21:44:00,55.9,54.8,30.19,West,280,0.0,6.0,96,0.00,,---,0.08,VWS V14.01,2013-11-23 02:44:00,
2013-11-22 21:46:00,55.8,54.7,30.18,NNE,27,2.0,2.0,96,0.00,,---,0.08,VWS V14.01,2013-11-23 02:46:00,
2013-11-22 21:47:00,55.8,54.7,30.18,SW,231,2.0,2.0,96,0.00,,---,0.08,VWS V14.01,2013-11-23 02:47:00,
2013-11-22 21:48:00,55.8,54.7,30.18,WNW,303,1.0,6.0,96,0.00,,---,0.08,VWS V14.01,2013-11-23 02:48:00,
2013-11-22 21:49:00,55.8,54.7,30.19,SW,226,1.0,6.0,96,0.00,,---,0.08,VWS V14.01,2013-11-23 02:49:00,
2013-11-22 21:50:00,55.8,54.7,30.19,WSW,248,0.0,4.0,96,0.00,,---,0.08,VWS V14.01,2013-11-23 02:50:00,
2013-11-22 21:51:00,55.7,54.6,30.19,WNW,287,0.0,4.0,96,0.00,,---,0.08,VWS V14.01,2013-11-23 02:51:00,
2013-11-22 21:52:00,55.7,54.6,30.19,SW,225,5.0,5.0,96,0.00,,---,0.08,VWS V14.01,2013-11-23 02:52:00,
2013-11-22 21:54:00,55.7,54.6,30.19,West,262,4.0,5.0,96,0.00,,---,0.08,VWS V14.01,2013-11-23 02:54:00,
2013-11-22 21:55:00,55.7,54.6,30.19,WNW,301,4.0,4.0,96,0.00,,---,0.08,VWS V14.01,2013-11-23 02:55:00,
2013-11-22 21:57:00,55.6,54.5,30.19,WNW,300,0.0,4.0,96,0.00,,---,0.08,VWS V14.01,2013-11-23 02:57:00,
2013-11-22 21:58:00,55.6,54.5,30.18,East,89,1.0,4.0,96,0.00,,---,0.08,VWS V14.01,2013-11-23 02:58:00,
2013-11-22 21:59:00,55.6,54.5,30.18,East,95,1.0,4.0,96,0.00,,---,0.08,VWS V14.01,2013-11-23 02:59:00,
2013-11-22 22:00:00,55.5,54.4,30.18,East,95,0.0,2.0,96,0.00,,---,0.08,VWS V14.01,2013-11-23 03:00:00,
2013-11-22 22:02:00,55.5,54.4,30.19,ESE,105,1.0,5.0,96,0.00,,---,0.08,VWS V14.01,2013-11-23 03:02:00,
2013-11-22 22:03:00,55.5,54.4,30.18,East,88,0.0,5.0,96,0.00,,---,0.08,VWS V14.01,2013-11-23 03:03:00,
2013-11-22 22:04:00,55.4,54.3,30.19,SW,223,0.0,5.0,96,0.00,,---,0.08,VWS V14.01,2013-11-23 03:04:00,
2013-11-22 22:05:00,55.4,54.3,30.19,NW,326,1.0,2.0,96,0.00,,---,0.08,VWS V14.01,2013-11-23 03:05:00,
2013-11-22 22:08:00,55.3,54.2,30.19,NNW,329,0.0,6.0,96,0.00,,---,0.08,VWS V14.01,2013-11-23 03:08:00,
2013-11-22 22:10:00,55.3,54.2,30.19,WSW,252,5.0,5.0,96,0.00,,---,0.08,VWS V14.01,2013-11-23 03:10:00,
2013-11-22 22:11:00,55.3,54.2,30.19,WSW,256,0.0,5.0,96,0.00,,---,0.08,VWS V14.01,2013-11-23 03:11:00,
2013-11-22 22:13:00,55.3,53.9,30.19,NNW,342,1.0,5.0,95,0.00,,---,0.08,VWS V14.01,2013-11-23 03:13:00,
2013-11-22 22:15:00,55.2,53.8,30.19,WSW,252,3.0,4.0,95,0.00,,---,0.08,VWS V14.01,2013-11-23 03:15:00,
2013-11-22 22:16:00,55.2,53.8,30.19,SW,227,0.0,5.0,95,0.00,,---,0.08,VWS V14.01,2013-11-23 03:16:00,
2013-11-22 22:18:00,55.2,53.8,30.19,NW,306,0.0,5.0,95,0.00,,---,0.08,VWS V14.01,2013-11-23 03:18:00,
2013-11-22 22:20:00,55.1,53.7,30.20,North,1,5.0,5.0,95,0.00,,---,0.08,VWS V14.01,2013-11-23 03:20:00,
2013-11-22 22:21:00,55.1,53.7,30.20,East,81,1.0,5.0,95,0.00,,---,0.08,VWS V14.01,2013-11-23 03:21:00,
2013-11-22 22:23:00,55.0,53.6,30.20,South,181,0.0,7.0,95,0.00,,---,0.08,VWS V14.01,2013-11-23 03:23:00,
2013-11-22 22:25:00,55.0,53.6,30.20,NNE,25,1.0,2.0,95,0.00,,---,0.08,VWS V14.01,2013-11-23 03:25:00,
2013-11-22 22:26:00,55.0,53.6,30.20,NNE,12,5.0,6.0,95,0.00,,---,0.08,VWS V14.01,2013-11-23 03:26:00,
2013-11-22 22:28:00,54.9,53.5,30.20,West,259,2.0,6.0,95,0.00,,---,0.08,VWS V14.01,2013-11-23 03:28:00,
2013-11-22 22:29:00,54.9,53.5,30.20,NNW,327,2.0,6.0,95,0.00,,---,0.08,VWS V14.01,2013-11-23 03:29:00,
2013-11-22 22:30:00,54.9,53.2,30.20,WSW,256,4.0,4.0,94,0.00,,---,0.08,VWS V14.01,2013-11-23 03:30:00,
2013-11-22 22:31:00,54.9,53.2,30.20,West,274,0.0,4.0,94,0.00,,---,0.08,VWS V14.01,2013-11-23 03:31:00,
2013-11-22 22:33:00,54.9,53.2,30.20,WNW,303,5.0,5.0,94,0.00,,---,0.08,VWS V14.01,2013-11-23 03:33:00,
2013-11-22 22:34:00,54.8,53.1,30.19,NW,305,1.0,5.0,94,0.00,,---,0.08,VWS V14.01,2013-11-23 03:34:00,
2013-11-22 22:35:00,54.8,53.1,30.19,NW,309,0.0,1.0,94,0.00,,---,0.08,VWS V14.01,2013-11-23 03:35:00,
2013-11-22 22:37:00,54.8,53.1,30.20,South,171,2.0,2.0,94,0.00,,---,0.08,VWS V14.01,2013-11-23 03:37:00,
2013-11-22 22:38:00,54.8,53.1,30.20,WSW,256,5.0,5.0,94,0.00,,---,0.08,VWS V14.01,2013-11-23 03:38:00,
2013-11-22 22:39:00,54.8,53.1,30.20,West,268,4.0,5.0,94,0.00,,---,0.08,VWS V14.01,2013-11-23 03:39:00,
2013-11-22 22:40:00,54.8,53.1,30.20,West,268,0.0,0.0,94,0.00,,---,0.08,VWS V14.01,2013-11-23 03:40:00,
2013-11-22 22:42:00,54.8,53.1,30.20,WNW,283,0.0,4.0,94,0.00,,---,0.08,VWS V14.01,2013-11-23 03:42:00,
2013-11-22 22:43:00,54.8,53.1,30.20,North,352,2.0,4.0,94,0.00,,---,0.08,VWS V14.01,2013-11-23 03:43:00,
2013-11-22 22:44:00,54.8,53.1,30.20,NW,306,1.0,4.0,94,0.00,,---,0.08,VWS V14.01,2013-11-23 03:44:00,
2013-11-22 22:45:00,54.7,53.0,30.20,NW,306,0.0,0.0,94,0.00,,---,0.08,VWS V14.01,2013-11-23 03:45:00,
2013-11-22 22:46:00,54.7,53.0,30.20,West,279,1.0,4.0,94,0.00,,---,0.08,VWS V14.01,2013-11-23 03:46:00,
2013-11-22 22:48:00,54.7,53.0,30.20,NW,312,0.0,5.0,94,0.00,,---,0.08,VWS V14.01,2013-11-23 03:48:00,
2013-11-22 22:49:00,54.7,53.0,30.20,WSW,248,1.0,5.0,94,0.00,,---,0.08,VWS V14.01,2013-11-23 03:49:00,
2013-11-22 22:50:00,54.7,52.7,30.20,West,277,2.0,2.0,93,0.00,,---,0.08,VWS V14.01,2013-11-23 03:50:00,
2013-11-22 22:51:00,54.6,52.6,30.20,WNW,282,3.0,4.0,93,0.00,,---,0.08,VWS V14.01,2013-11-23 03:51:00,
2013-11-22 22:53:00,54.6,52.9,30.20,WNW,285,1.0,6.0,94,0.00,,---,0.08,VWS V14.01,2013-11-23 03:53:00,
2013-11-22 22:54:00,54.6,52.9,30.20,WNW,291,0.0,6.0,94,0.00,,---,0.08,VWS V14.01,2013-11-23 03:54:00,
2013-11-22 22:55:00,54.6,52.9,30.20,West,261,1.0,4.0,94,0.00,,---,0.08,VWS V14.01,2013-11-23 03:55:00,
2013-11-22 22:56:00,54.6,52.9,30.20,WSW,239,5.0,5.0,94,0.00,,---,0.08,VWS V14.01,2013-11-23 03:56:00,
2013-11-22 22:59:00,54.6,52.6,30.20,WSW,256,7.0,7.0,93,0.00,,---,0.08,VWS V14.01,2013-11-23 03:59:00,
2013-11-22 23:00:00,54.5,52.5,30.20,West,276,4.0,4.0,93,0.00,,---,0.08,VWS V14.01,2013-11-23 04:00:00,
2013-11-22 23:01:00,54.5,52.5,30.20,West,277,0.0,4.0,93,0.00,,---,0.08,VWS V14.01,2013-11-23 04:01:00,
2013-11-22 23:04:00,54.5,52.5,30.20,NW,323,0.0,5.0,93,0.00,,---,0.08,VWS V14.01,2013-11-23 04:04:00,
2013-11-22 23:05:00,54.5,52.5,30.20,NNE,31,2.0,3.0,93,0.00,,---,0.08,VWS V14.01,2013-11-23 04:05:00,
2013-11-22 23:06:00,54.5,52.5,30.20,East,91,0.0,3.0,93,0.00,,---,0.08,VWS V14.01,2013-11-23 04:06:00,
2013-11-22 23:09:00,54.4,52.4,30.20,SW,221,0.0,4.0,93,0.00,,---,0.08,VWS V14.01,2013-11-23 04:09:00,
2013-11-22 23:10:00,54.4,52.4,30.20,WNW,291,0.0,1.0,93,0.00,,---,0.08,VWS V14.01,2013-11-23 04:10:00,
2013-11-22 23:11:00,54.4,52.4,30.20,West,279,1.0,2.0,93,0.00,,---,0.08,VWS V14.01,2013-11-23 04:11:00,
2013-11-22 23:14:00,54.4,52.4,30.20,WNW,302,3.0,3.0,93,0.00,,---,0.08,VWS V14.01,2013-11-23 04:14:00,
2013-11-22 23:15:00,54.4,52.4,30.20,NNW,335,0.0,1.0,93,0.00,,---,0.08,VWS V14.01,2013-11-23 04:15:00,
2013-11-22 23:16:00,54.4,52.4,30.20,NW,319,1.0,2.0,93,0.00,,---,0.08,VWS V14.01,2013-11-23 04:16:00,
2013-11-22 23:19:00,54.4,52.1,30.21,WNW,300,2.0,3.0,92,0.00,,---,0.08,VWS V14.01,2013-11-23 04:19:00,
2013-11-22 23:20:00,54.4,52.1,30.21,WNW,300,0.0,0.0,92,0.00,,---,0.08,VWS V14.01,2013-11-23 04:20:00,
2013-11-22 23:21:00,54.4,52.1,30.21,WNW,300,0.0,1.0,92,0.00,,---,0.08,VWS V14.01,2013-11-23 04:21:00,
2013-11-22 23:22:00,54.3,52.0,30.21,West,279,1.0,4.0,92,0.00,,---,0.08,VWS V14.01,2013-11-23 04:22:00,
2013-11-22 23:24:00,54.3,52.0,30.21,WSW,252,0.0,4.0,92,0.00,,---,0.08,VWS V14.01,2013-11-23 04:24:00,
2013-11-22 23:25:00,54.3,52.0,30.21,WSW,252,0.0,0.0,92,0.00,,---,0.08,VWS V14.01,2013-11-23 04:25:00,
2013-11-22 23:26:00,54.3,52.0,30.21,WSW,252,1.0,1.0,92,0.00,,---,0.08,VWS V14.01,2013-11-23 04:26:00,
2013-11-22 23:27:00,54.3,52.0,30.21,WSW,256,0.0,2.0,92,0.00,,---,0.08,VWS V14.01,2013-11-23 04:27:00,
2013-11-22 23:29:00,54.3,52.0,30.21,WSW,256,0.0,2.0,92,0.00,,---,0.08,VWS V14.01,2013-11-23 04:29:00,
2013-11-22 23:30:00,54.3,52.0,30.21,WSW,256,0.0,1.0,92,0.00,,---,0.08,VWS V14.01,2013-11-23 04:30:00,
2013-11-22 23:31:00,54.3,52.0,30.21,WSW,256,1.0,1.0,92,0.00,,---,0.08,VWS V14.01,2013-11-23 04:31:00,
2013-11-22 23:32:00,54.3,52.0,30.21,NE,52,2.0,2.0,92,0.00,,---,0.08,VWS V14.01,2013-11-23 04:32:00,
2013-11-22 23:34:00,54.2,51.9,30.20,NE,44,1.0,1.0,92,0.00,,---,0.08,VWS V14.01,2013-11-23 04:34:00,
2013-11-22 23:35:00,54.2,51.9,30.20,NE,44,0.0,1.0,92,0.00,,---,0.08,VWS V14.01,2013-11-23 04:35:00,
2013-11-22 23:36:00,54.2,51.9,30.20,NE,44,0.0,1.0,92,0.00,,---,0.08,VWS V14.01,2013-11-23 04:36:00,
2013-11-22 23:38:00,54.2,51.9,30.20,NE,44,1.0,1.0,92,0.00,,---,0.08,VWS V14.01,2013-11-23 04:38:00,
2013-11-22 23:40:00,54.2,51.9,30.20,NE,40,1.0,1.0,92,0.00,,---,0.08,VWS V14.01,2013-11-23 04:40:00,
2013-11-22 23:41:00,54.2,51.9,30.20,NE,40,0.0,2.0,92,0.00,,---,0.08,VWS V14.01,2013-11-23 04:41:00,
2013-11-22 23:43:00,54.2,51.9,30.20,NE,40,0.0,2.0,92,0.00,,---,0.08,VWS V14.01,2013-11-23 04:43:00,
2013-11-22 23:45:00,54.2,51.9,30.20,NE,42,0.0,1.0,92,0.00,,---,0.08,VWS V14.01,2013-11-23 04:45:00,
2013-11-22 23:46:00,54.2,51.9,30.20,NE,42,0.0,1.0,92,0.00,,---,0.08,VWS V14.01,2013-11-23 04:46:00,
2013-11-22 23:48:00,54.2,51.9,30.20,NNW,342,0.0,4.0,92,0.00,,---,0.08,VWS V14.01,2013-11-23 04:48:00,
2013-11-22 23:50:00,54.1,51.8,30.20,NNW,342,1.0,1.0,92,0.00,,---,0.08,VWS V14.01,2013-11-23 04:50:00,
2013-11-22 23:51:00,54.1,51.8,30.20,NNE,17,1.0,2.0,92,0.00,,---,0.08,VWS V14.01,2013-11-23 04:51:00,
2013-11-22 23:53:00,54.1,51.8,30.20,North,352,0.0,2.0,92,0.00,,---,0.08,VWS V14.01,2013-11-23 04:53:00,
2013-11-22 23:55:00,54.1,51.8,30.20,North,3,2.0,2.0,92,0.00,,---,0.08,VWS V14.01,2013-11-23 04:55:00,
2013-11-22 23:56:00,54.1,51.8,30.20,North,9,0.0,2.0,92,0.00,,---,0.08,VWS V14.01,2013-11-23 04:56:00,
2013-11-22 23:57:00,54.0,51.4,30.20,North,9,0.0,2.0,91,0.00,,---,0.08,VWS V14.01,2013-11-23 04:57:00,
2013-11-22 23:59:00,54.0,51.4,30.20,North,352,0.0,2.0,91,0.00,,---,0.08,VWS V14.01,2013-11-23 04:59:00,